[{"header": {"dx": 0.06612293990616946, "dy": 0.0552356325346848, "nx": 98, "ny": 59, "la1": 35.046912555036876, "la2": 31.78801023549047, "lo1": -121.43107172385933, "lo2": -114.95102361305473, "refTime": "2026041513", "parameterCategory": 1, "parameterNumber": 2}, "data": [6.46, 6.25, 5.86, 5.23, 4.63, 4.0, 3.6, 2.96, 2.32, 1.19, 0.0, -0.61, -0.71, -1.24, -1.9, -2.53, -4.09, -5.43, -6.4, -6.79, -6.64, -5.81, -4.24, -3.83, -2.86, -2.5, -1.86, -1.2, -0.45, 0.0, 0.63, 1.2, 1.86, 2.4, 3.07, 3.07, 3.13, 2.68, 1.79, 0.63, 0.6, 0.6, 1.79, 2.8, 5.75, 7.69, 9.3, 9.92, 9.3, 8.68, 5.43, 1.34, 0.95, 1.58, 1.88, 2.07, 3.07, 3.84, 4.4, 4.4, 3.74, 2.17, 0.45, -0.0, 1.26, 2.4, 3.74, 5.16, 6.55, 8.36, 8.82, 7.56, 5.81, 4.02, 3.58, 5.31, 6.55, 6.22, 2.24, -1.34, -2.23, -1.58, -1.26, -1.34, -0.89, -0.45, 0.0, 0.0, 0.89, 2.91, 3.72, 4.43, 4.36, 3.43, 3.16, 2.84, 3.14, 3.14, 6.22, 6.25, 5.83, 5.64, 5.26, 4.63, 4.03, 3.4, 2.77, 2.36, 1.11, 0.0, 0.0, 0.0, 0.0, 0.0, -2.21, -4.98, -6.4, -6.0, -7.81, -7.52, -5.36, -3.6, -2.53, -2.53, -1.9, -1.86, -1.2, -0.89, -0.0, -0.0, 0.99, 1.9, 2.15, 2.91, 3.07, 3.13, 2.17, 1.34, 0.89, 1.79, 3.2, 5.37, 6.88, 8.53, 9.23, 8.53, 8.6, 6.39, 2.24, 0.65, 1.49, 1.88, 2.07, 2.53, 3.07, 4.12, 4.84, 5.34, 5.16, 3.32, 1.86, 1.58, 1.9, 2.5, 4.0, 4.73, 5.64, 7.28, 8.19, 7.45, 4.47, 3.58, 2.68, 3.58, 6.55, 6.22, 2.24, -1.34, -2.23, -1.58, -1.26, -1.34, -0.89, -0.45, 0.0, 0.0, 0.89, 2.91, 3.72, 4.43, 4.36, 3.43, 3.16, 2.84, 3.14, 3.14, 6.22, 6.46, 5.83, 5.86, 5.23, 4.6, 4.66, 4.03, 3.4, 2.8, 1.55, 0.57, 0.54, 0.57, 0.99, 1.26, 0.0, -2.21, -5.05, -6.8, -6.0, -7.81, -7.81, -6.17, -3.51, -2.5, -1.88, -1.9, -1.49, -1.79, -1.34, -0.89, -0.0, -0.0, 1.26, 2.12, 3.07, 3.13, 3.07, 2.4, 2.5, 3.43, 5.86, 7.73, 7.54, 7.54, 7.73, 6.58, 5.06, 2.4, 1.2, 1.33, 2.15, 2.3, 2.0, 3.07, 3.48, 4.84, 5.43, 5.34, 5.34, 4.0, 3.22, 2.79, 2.84, 3.49, 4.46, 5.05, 5.43, 6.54, 7.89, 8.19, 6.21, 3.04, 2.4, 3.07, 6.26, 8.46, 2.63, -1.2, -1.79, -0.63, -0.45, -1.2, -1.49, -1.2, -0.45, 0.0, 1.7, 3.6, 6.07, 6.06, 5.3, 4.56, 3.12, 3.16, 2.79, 3.07, 6.43, 6.46, 5.8, 5.83, 5.64, 5.02, 4.63, 4.0, 3.37, 2.75, 2.32, 1.19, 0.53, 0.65, 0.54, 1.24, 1.58, 0.0, -3.35, -6.36, -5.16, -5.73, -7.81, -8.4, -6.98, -3.58, -2.5, -1.58, -0.8, -1.34, -1.86, -2.15, -2.5, -1.6, 0.0, 1.79, 2.68, 3.51, 3.45, 4.12, 5.3, 7.08, 6.87, 6.2, 6.14, 6.01, 5.09, 3.45, 3.07, 2.4, 2.51, 2.07, 2.07, 2.3, 2.79, 3.48, 3.84, 4.46, 5.43, 5.86, 5.16, 3.83, 3.48, 2.73, 3.72, 4.43, 4.81, 4.74, 6.01, 6.98, 7.69, 8.67, 7.89, 3.13, 1.24, 1.88, 4.52, 9.72, 3.07, -1.86, -2.4, -1.2, -1.2, -2.4, -2.91, -1.7, 0.0, 1.34, 3.07, 6.07, 6.7, 6.06, 5.3, 4.29, 2.79, 2.79, 3.39, 3.82, 6.43, 6.46, 5.8, 5.83, 5.86, 5.23, 5.26, 4.63, 4.0, 3.37, 2.96, 2.16, 0.61, 0.61, 0.61, 0.61, 1.16, 0.54, -2.79, -7.28, -8.67, -6.26, -5.36, -7.08, -6.98, -6.64, -3.13, -1.79, 0.45, 0.0, 0.0, -1.88, -2.51, -2.51, 0.0, 1.4, 2.53, 4.29, 6.06, 6.14, 6.31, 6.24, 5.09, 4.24, 4.87, 5.81, 5.81, 5.36, 4.87, 4.4, 3.14, 2.84, 2.86, 2.53, 2.84, 3.84, 4.09, 4.46, 5.43, 6.28, 5.16, 3.07, 2.0, 2.88, 3.9, 4.36, 4.43, 4.11, 4.65, 6.39, 8.24, 9.6, 8.97, 5.64, 2.24, 1.16, 2.73, 7.03, 3.82, -1.58, -3.07, -2.5, -2.68, -3.82, -3.6, -1.9, 0.54, 2.79, 4.75, 6.68, 6.44, 5.09, 4.74, 2.23, 0.8, 2.17, 3.98, 4.73, 6.43, 6.22, 6.0, 6.04, 5.83, 5.64, 5.23, 4.6, 3.97, 3.8, 3.4, 2.29, 0.61, 0.61, 0.7, 0.66, 0.66, 0.59, -1.16, -6.64, -10.0, -8.4, -7.74, -6.71, -5.81, -6.17, -4.0, -2.23, -0.8, 0.0, 1.26, 0.6, 0.0, -0.7, 0.0, 0.67, 1.35, 4.36, 6.32, 4.6, 2.99, 3.22, 2.91, 4.92, 7.56, 8.46, 8.49, 7.6, 6.22, 4.24, 3.32, 3.32, 2.86, 2.86, 3.07, 4.0, 4.0, 4.0, 5.34, 7.45, 5.59, 2.86, 2.0, 3.22, 3.72, 4.74, 4.43, 4.46, 3.49, 5.05, 7.28, 8.36, 8.4, 8.4, 6.11, 3.53, 2.79, 2.79, 2.4, -1.26, -3.14, -2.84, -3.16, -3.72, -3.16, -1.23, 0.7, 3.55, 5.59, 5.3, 4.74, 5.72, 2.23, -1.2, -1.2, 2.4, 4.73, 6.07, 6.22, 6.22, 6.0, 5.8, 5.83, 5.86, 5.2, 5.02, 4.63, 4.0, 3.56, 2.75, 1.33, 1.4, 2.48, 1.33, 1.41, 1.55, 0.0, -3.43, -7.85, -8.32, -7.67, -6.94, -5.37, -4.29, -3.79, -1.99, -0.96, 0.0, 0.8, 1.34, 1.79, 1.26, 0.66, 0.0, 0.67, 2.76, 4.54, 2.79, 1.05, 0.0, 1.83, 4.11, 7.81, 7.71, 8.46, 7.6, 5.81, 6.71, 5.36, 3.07, 3.32, 3.07, 3.32, 3.74, 3.82, 3.82, 4.87, 6.66, 4.73, 2.5, 2.15, 2.53, 2.84, 3.49, 5.05, 4.24, 3.97, 4.47, 6.71, 6.71, 6.26, 7.6, 7.6, 6.26, 3.82, 2.4, 1.79, 1.86, -2.0, -2.29, -2.2, -3.0, -1.49, 0.0, 0.78, 2.12, 3.69, 3.55, 4.61, 2.4, -1.86, -3.58, -0.57, 2.53, 5.05, 6.13, 6.22, 6.22, 6.0, 5.8, 6.04, 5.83, 5.86, 5.23, 4.6, 4.16, 3.52, 2.73, 1.33, 1.88, 3.16, 2.21, 2.51, 2.88, 2.48, 0.57, -1.2, -3.35, -6.08, -6.06, -4.07, -2.99, -2.12, -2.21, -3.4, -2.76, -0.76, 0.0, 1.24, 2.21, 1.8, 0.61, 0.0, 1.13, 2.86, 2.53, 1.83, 1.0, 1.02, 3.11, 4.21, 4.19, 4.46, 6.11, 6.26, 7.15, 3.13, 3.13, 2.91, 3.32, 3.74, 4.24, 4.24, 4.24, 5.77, 5.77, 4.85, 2.4, 1.86, 1.86, 1.58, 2.5, 4.24, 4.92, 3.97, 4.24, 5.64, 5.64, 6.79, 7.98, 7.71, 6.14, 4.47, 3.82, 3.98, 4.92, 3.16, -0.65, -1.36, -0.71, 0.0, 0.68, 0.67, 0.73, 1.52, 2.8, 1.88, -2.23, -4.43, -3.32, 0.0, 3.16, 5.46, 5.69, 6.22, 6.22, 6.0, 5.8, 5.8, 5.83, 5.86, 5.2, 5.02, 4.6, 3.97, 2.86, 2.12, 1.52, 2.2, 2.84, 3.07, 3.72, 3.48, 2.8, 1.2, -0.45, -3.45, -4.46, -3.43, -1.66, -1.99, -4.22, -6.01, -3.91, -0.96, 0.0, 0.96, 1.99, 2.0, 1.41, 0.0, 0.0, 1.2, 1.9, 1.83, 2.21, 1.1, 0.0, 0.0, 0.66, 1.49, 3.58, 5.16, 4.43, 5.7, 3.13, 3.07, 3.32, 4.24, 4.66, 5.16, 5.64, 6.21, 5.77, 4.87, 2.6, 1.2, 0.95, 0.6, 2.17, 4.47, 6.26, 3.53, 3.32, 3.82, 5.94, 7.98, 8.25, 7.06, 4.3, 4.02, 4.43, 6.26, 8.05, 4.92, 0.0, 0.0, 0.0, 0.69, 1.36, 0.67, 0.0, 0.0, 0.0, -2.79, -4.77, -4.52, -2.23, 0.51, 3.15, 5.43, 5.46, 6.46, 6.46, 6.0, 6.0, 5.8, 5.83, 5.83, 5.86, 5.2, 4.57, 4.6, 3.94, 3.49, 2.39, 1.67, 2.4, 3.09, 3.09, 2.12, 1.6, 0.0, 0.0, -1.58, -2.84, -3.48, -2.99, -2.76, -5.06, -5.69, -1.98, 0.0, 0.0, 0.0, 0.79, 0.79, 1.49, 1.49, 0.71, 0.45, 1.34, 1.13, 0.57, 0.0, -1.34, -1.34, 0.0, 0.66, 1.8, 3.49, 4.24, 3.58, 3.53, 3.53, 3.82, 4.41, 4.73, 5.31, 6.21, 6.26, 6.26, 5.81, 3.51, 3.39, 1.26, 1.26, 2.6, 3.98, 5.78, 3.58, 2.91, 3.07, 6.13, 8.06, 7.56, 6.58, 4.87, 3.97, 4.73, 6.11, 7.57, 7.6, 3.98, 0.59, 0.59, 1.84, 2.53, 2.79, 2.5, 0.6, -1.79, -3.54, -4.11, -3.16, -2.0, 0.0, 3.15, 5.09, 5.09, 6.46, 6.46, 6.0, 6.0, 5.8, 5.8, 5.83, 5.62, 5.2, 5.0, 4.57, 5.02, 5.26, 4.6, 2.57, 1.54, 2.49, 2.23, 1.73, 0.57, 0.0, -0.65, -0.57, -1.9, -2.68, -4.19, -4.47, -3.91, -3.22, -1.03, 0.0, 0.72, 0.0, 0.0, 0.0, 0.88, 1.49, 1.26, 0.45, 0.45, 0.0, -1.24, -1.2, -0.8, -0.95, -1.2, 0.0, 0.53, 1.2, 1.86, 2.24, 3.07, 3.39, 3.97, 3.97, 3.97, 4.92, 5.36, 5.81, 5.81, 4.47, 3.39, 2.21, 1.24, 1.24, 2.8, 4.0, 5.44, 3.97, 3.53, 4.0, 6.25, 7.56, 6.36, 5.67, 6.22, 5.02, 4.09, 5.69, 7.6, 7.63, 6.11, 3.39, 1.61, 2.49, 3.58, 4.92, 5.36, 4.47, 2.24, -0.63, -1.88, -1.8, -1.23, 0.57, 2.44, 3.38, 3.38, 6.46, 6.46, 6.0, 6.0, 5.8, 5.8, 6.04, 5.83, 5.62, 5.2, 5.2, 5.2, 5.67, 6.08, 5.32, 3.97, 2.8, 1.71, 1.15, 0.0, -0.5, -1.24, -0.8, -0.89, -1.79, -2.6, -2.53, -2.53, -1.4, -0.66, 0.0, 0.57, 0.0, -0.65, 0.0, 0.51, 0.53, 0.0, -1.6, -2.17, -3.13, -2.68, -0.89, -0.0, -0.95, -1.7, -1.34, -0.63, 0.0, 0.45, 0.89, 1.34, 2.17, 2.6, 2.17, 2.63, 3.53, 4.02, 3.53, 3.53, 2.63, 1.88, 1.2, -0.0, 0.6, 2.5, 3.49, 4.66, 4.43, 3.97, 4.52, 6.13, 5.94, 4.87, 5.31, 6.98, 5.86, 4.84, 6.96, 7.95, 7.07, 5.34, 4.3, 2.4, 2.63, 3.53, 5.32, 6.22, 5.36, 4.47, 3.53, 1.9, 0.0, 0.0, 1.11, 2.73, 2.73, 2.44, 6.46, 6.46, 6.46, 6.0, 6.0, 6.25, 6.25, 6.5, 5.83, 5.62, 5.86, 5.86, 6.29, 6.7, 6.98, 6.35, 4.71, 2.89, 1.14, 0.0, -0.59, -0.95, -1.34, -1.7, -2.17, -1.79, -1.7, -1.26, -0.8, -0.99, -1.16, -1.24, -2.12, -1.7, -1.2, -1.2, -1.79, -2.24, -3.53, -3.97, -3.97, -2.91, -1.26, 0.0, -0.0, -0.95, -1.34, -0.95, 0.0, 0.0, 0.0, 0.0, 0.0, 0.0, 0.0, 0.89, 1.79, 2.12, 1.79, 0.45, -0.0, -0.0, -0.0, -0.63, 0.0, 0.8, 2.15, 2.5, 1.86, 1.79, 2.6, 3.39, 3.97, 4.43, 6.21, 7.71, 7.21, 6.44, 7.32, 7.32, 5.36, 3.49, 5.69, 5.46, 3.32, 3.82, 5.44, 5.51, 4.88, 4.92, 5.77, 3.97, 2.49, 2.5, 2.51, 2.84, 2.53, 1.16, 6.46, 6.46, 6.46, 6.46, 6.46, 6.46, 6.25, 6.25, 6.5, 6.27, 6.27, 6.53, 6.53, 6.94, 7.61, 7.6, 6.34, 4.47, 2.77, 1.67, 0.0, -0.95, -1.79, -2.24, -2.24, -2.6, -2.68, -2.84, -3.09, -3.98, -4.44, -3.13, -2.68, -2.24, -2.24, -2.68, -2.68, -3.13, -3.58, -3.98, -3.82, -3.07, -2.23, -0.45, 0.45, 0.0, 0.0, 0.0, 0.0, 0.0, 0.0, 0.0, 0.0, 0.0, 0.0, 0.0, 0.45, 0.89, 0.89, -0.0, -1.26, -0.71, -0.8, -1.34, -1.24, -0.57, 0.0, -0.63, -1.24, -1.2, -0.71, -0.0, 1.7, 3.13, 4.3, 7.28, 6.54, 6.07, 6.08, 5.43, 3.22, 4.11, 6.35, 6.7, 3.78, 4.09, 5.05, 4.3, 3.98, 4.47, 6.26, 4.43, 4.24, 3.32, 3.6, 3.39, 2.17, 0.6, 6.46, 6.46, 6.46, 6.46, 6.46, 6.46, 6.46, 6.25, 6.25, 6.5, 6.5, 6.92, 6.94, 7.33, 7.6, 7.33, 7.59, 6.32, 5.08, 3.84, 2.23, 0.0, -1.26, -2.17, -2.24, -2.68, -3.09, -3.87, -4.19, -4.34, -4.47, -4.44, -2.68, -2.24, -2.24, -2.68, -2.68, -2.6, -4.34, -3.53, -3.58, -3.58, -2.24, -0.89, -0.0, -0.0, 0.0, 0.0, 0.0, 0.0, 0.0, 0.0, 0.0, 0.0, 0.0, 0.0, 0.45, 0.63, 1.34, 0.63, -0.63, -0.89, -0.89, -0.95, -1.2, -0.76, -0.85, -0.89, -0.71, -1.49, -1.76, -1.27, -0.0, 1.2, 3.07, 3.82, 4.3, 4.24, 3.74, 2.91, 2.4, 2.5, 5.05, 5.72, 3.6, 3.43, 3.49, 3.82, 3.13, 4.02, 5.81, 6.22, 5.02, 3.82, 3.97, 2.68, 1.6, 1.6, 6.46, 6.46, 6.46, 6.46, 6.46, 6.46, 6.46, 6.46, 6.46, 6.25, 6.92, 6.92, 7.32, 7.59, 7.6, 7.33, 7.32, 6.97, 6.34, 5.69, 5.01, 2.86, 0.54, -0.6, -0.89, -1.34, -1.79, -2.68, -3.53, -3.98, -4.02, -3.58, -3.53, -1.79, -1.34, -2.17, -2.91, -3.07, -4.0, -4.57, -3.07, -2.17, -1.79, -1.26, -1.26, -0.0, -1.26, -0.95, 0.45, 0.0, 0.0, 0.0, 0.0, 0.0, 0.0, 0.0, 0.0, 0.0, 0.89, 0.95, -0.0, 0.45, 0.45, 0.0, 0.0, 0.0, 0.0, 0.0, -0.0, -1.66, -2.48, -0.61, -0.0, 0.95, 1.34, 1.79, 1.34, 1.34, 0.89, 0.89, 1.34, 2.24, 3.58, 5.31, 4.87, 3.07, 2.5, 2.63, 2.68, 3.58, 5.36, 5.02, 3.32, 3.98, 5.77, 3.39, 2.15, 2.15, 6.46, 6.46, 6.46, 6.46, 6.46, 6.46, 6.46, 6.9, 6.9, 6.9, 6.9, 7.16, 7.57, 7.59, 7.96, 7.6, 7.61, 7.32, 7.59, 6.95, 6.28, 5.59, 4.0, 2.15, 1.79, 1.79, 1.2, 0.0, -1.34, -2.24, -3.13, -3.13, -3.07, -1.34, -1.6, -2.15, -3.6, -3.74, -3.2, -3.9, -3.13, -2.24, -2.68, -1.34, -1.79, -1.26, -1.26, -1.79, -1.26, -1.26, -1.26, -0.95, -1.34, -1.34, 0.89, 0.45, 0.89, 1.34, 1.26, 1.26, -0.0, -0.0, -0.0, -0.0, -0.0, 0.0, 0.0, 0.0, -0.8, -2.53, -2.23, -0.89, 0.0, 0.0, -0.63, -1.34, -1.86, -1.58, -1.58, -0.95, 0.63, 2.24, 3.58, 4.44, 5.77, 3.51, 1.79, 2.24, 3.13, 5.2, 7.76, 4.73, 3.07, 4.0, 5.86, 3.6, 2.21, 2.21, 6.46, 6.46, 6.46, 6.46, 6.46, 6.46, 6.46, 6.9, 6.9, 6.9, 6.9, 7.57, 7.57, 7.96, 7.96, 7.96, 7.95, 7.95, 7.6, 7.55, 7.44, 6.79, 5.86, 5.09, 4.92, 4.47, 3.98, 2.91, 1.26, 0.0, -1.2, -2.12, -2.17, -1.79, -1.86, -2.15, -3.82, -4.02, -3.58, -2.68, -2.24, -2.68, -2.68, -1.79, -1.79, -1.34, -1.34, -1.34, -1.34, -1.26, -1.58, -1.58, -1.26, -1.34, 1.34, 0.89, 0.89, 1.26, 1.58, 1.26, -0.0, -0.0, -1.58, -1.6, -2.73, -1.24, -0.0, 0.0, -1.34, -2.68, -2.23, -1.2, -0.71, -1.24, -2.63, -3.58, -3.13, -2.17, -1.7, -1.34, 0.0, 1.86, 3.39, 5.02, 4.0, 3.45, 3.72, 3.13, 4.4, 6.0, 6.79, 4.87, 3.6, 4.12, 5.31, 4.0, 2.53, 2.53, 6.46, 6.46, 6.46, 6.46, 6.46, 6.46, 6.9, 7.13, 7.13, 7.55, 7.31, 7.83, 8.22, 7.96, 7.59, 6.97, 7.61, 7.61, 7.3, 7.51, 8.0, 8.27, 6.79, 3.83, 3.32, 3.47, 5.09, 2.91, 2.15, 1.88, 0.0, -0.6, -1.2, -1.34, -1.7, -3.07, -4.6, -5.81, -3.97, -3.04, -3.07, -2.6, -2.12, -2.68, -1.79, -0.89, -0.89, 0.89, -0.89, -1.34, -1.26, -1.26, -1.58, -1.58, -0.0, -0.0, 1.34, 1.34, 1.79, 1.34, 0.89, -0.0, -1.2, -1.9, -2.15, -1.9, -0.63, 0.63, 0.6, 0.0, -0.71, 0.54, 1.58, 0.57, -0.95, -2.24, -2.6, -2.91, -2.4, -1.26, 1.16, 2.51, 3.79, 4.74, 5.06, 4.94, 6.24, 6.32, 7.06, 4.71, 3.78, 4.93, 5.6, 4.43, 4.11, 3.49, 2.51, 2.51, 6.46, 6.46, 6.46, 6.46, 6.46, 6.9, 6.9, 7.13, 7.13, 7.55, 7.55, 7.83, 8.22, 8.22, 7.96, 7.6, 7.61, 6.97, 5.64, 5.3, 7.06, 8.65, 7.51, 5.06, 3.72, 3.16, 2.84, 3.49, 2.86, 1.8, 1.16, 0.0, 0.0, -0.63, -0.89, -1.86, -3.32, -4.02, -4.44, -4.44, -3.98, -3.58, -3.58, -3.13, -2.68, -1.34, -0.89, -0.89, 0.89, 0.89, -0.95, -1.26, -1.58, -1.0, -0.0, -0.0, 1.58, 0.89, 0.89, 0.89, 0.89, -1.58, -2.21, -2.48, -1.9, -1.9, -1.6, 0.0, 2.24, 3.07, 3.97, 7.15, 10.28, 9.36, 4.66, 2.5, 0.57, -1.61, -1.88, 0.0, 0.59, 2.0, 3.12, 3.55, 2.88, 2.48, 2.53, 2.4, 4.75, 2.84, 2.48, 4.74, 6.06, 4.29, 3.26, 3.79, 3.38, 3.38, 6.46, 6.46, 6.9, 6.9, 6.9, 6.9, 6.9, 6.9, 7.55, 7.55, 7.55, 8.22, 8.22, 8.22, 8.22, 7.96, 7.96, 6.96, 5.92, 5.28, 6.88, 7.6, 7.3, 6.35, 5.36, 4.08, 3.47, 2.22, 1.8, 1.13, 0.61, 0.53, 0.0, 0.0, 0.0, -0.89, -1.79, -2.24, -2.68, -2.68, -2.68, -2.68, -2.68, -2.68, -2.68, -1.34, -1.34, -1.34, -0.89, 0.89, -0.0, -1.26, -1.58, -1.0, -0.0, -0.0, 0.57, 0.8, 0.89, 0.45, -1.26, -2.21, -2.53, -3.39, -2.12, -2.12, -1.7, -0.63, 1.24, 2.79, 6.08, 8.8, 10.93, 10.28, 7.6, 5.3, 1.16, -1.2, -2.53, -1.16, 0.0, 1.8, 2.86, 2.84, 1.58, 0.89, 0.63, 1.24, 3.53, 3.53, 3.48, 5.21, 6.01, 3.32, 1.98, 2.72, 2.8, 2.8, 6.46, 6.9, 6.9, 6.9, 6.9, 6.9, 6.9, 6.9, 7.55, 7.55, 7.95, 8.22, 8.22, 8.59, 8.59, 8.23, 8.24, 7.6, 7.6, 7.6, 7.33, 6.98, 6.35, 6.08, 5.72, 4.75, 3.22, 1.6, 0.53, 0.0, 0.0, 0.65, 0.0, 0.0, 0.0, 0.45, -0.89, -0.89, -1.34, -1.34, -1.34, -1.79, -1.79, -1.79, -1.7, -2.17, -1.34, -1.34, -0.89, 0.89, -0.0, -0.0, -1.26, -0.0, -0.0, -0.0, -0.0, -0.0, -0.0, 0.89, -1.2, -1.86, -1.86, -1.7, -1.7, -1.26, -1.26, -1.2, -0.57, 0.65, 2.15, 3.22, 2.53, 2.4, 3.11, 3.51, 3.72, 1.84, -0.57, -1.9, -0.53, 0.59, 1.84, 2.23, 1.34, 0.6, 0.63, 1.79, 4.11, 6.58, 7.85, 6.95, 6.01, 2.84, 1.2, 1.13, 1.41, 1.41, 6.46, 6.46, 6.9, 6.9, 7.16, 7.16, 6.9, 6.9, 7.55, 7.55, 7.95, 8.86, 8.86, 8.59, 8.59, 8.87, 8.59, 8.58, 8.24, 8.58, 7.95, 6.98, 6.35, 5.72, 5.72, 5.08, 3.83, 2.51, 1.2, 0.0, 0.0, 0.0, 0.0, 0.0, 0.0, 0.0, 0.45, 0.45, -0.89, -0.89, -0.89, -1.34, -1.34, -1.2, -1.2, -1.6, -0.63, -0.89, -0.89, 0.45, 0.45, -0.0, -0.0, -0.0, -0.0, -1.2, -0.54, -0.0, -0.0, 0.45, -0.63, -0.95, -0.6, -0.6, -1.24, -1.0, -0.57, -0.63, -0.63, -0.0, 0.45, -1.2, -0.0, 0.63, 0.0, 1.36, 3.6, 3.78, 2.5, 0.0, -0.99, -0.61, 0.0, 0.0, 0.57, 1.26, 1.49, 2.51, 5.37, 8.3, 8.82, 7.61, 3.79, 1.34, 0.0, 0.99, 1.84, 1.84, 6.46, 6.46, 6.9, 6.9, 7.16, 7.16, 7.16, 7.57, 7.55, 7.55, 8.2, 8.86, 8.86, 8.86, 8.59, 8.59, 8.87, 8.59, 8.87, 8.58, 8.53, 7.59, 6.64, 5.71, 5.38, 5.38, 4.45, 3.49, 2.23, 1.0, 0.0, 0.0, 0.0, 0.0, 0.0, 0.0, 0.0, 0.45, 0.45, -0.89, -0.89, -0.89, -0.89, -0.63, -0.95, -0.6, -0.0, -0.0, 0.45, 0.45, -0.0, -0.0, -0.0, -0.0, -1.58, -1.2, -0.99, -0.99, -0.0, 0.95, 0.89, 0.0, 0.0, -0.6, -0.54, -0.65, -0.0, -0.0, -0.0, 0.0, 0.45, -1.34, 0.45, 0.63, 0.0, 1.13, 3.0, 4.47, 4.29, 1.86, 0.0, -1.0, -1.58, -0.63, 0.0, 0.0, 1.35, 3.09, 4.5, 5.94, 7.68, 3.16, 1.26, 0.63, 1.34, 2.4, 2.21, 2.21, 6.46, 6.46, 6.46, 7.16, 7.16, 7.16, 7.16, 7.57, 7.83, 7.55, 8.2, 8.86, 8.86, 8.86, 8.59, 8.59, 8.87, 8.87, 8.87, 8.87, 8.85, 8.22, 7.55, 6.32, 5.69, 5.08, 5.06, 4.43, 3.48, 2.23, 1.2, 0.71, 0.0, 0.0, 0.0, 0.0, 0.0, 0.0, 0.45, 0.45, 0.45, 0.45, 0.45, -0.0, -0.0, -0.0, -0.0, 0.95, 0.95, 0.6, 0.6, -0.0, -0.0, -0.0, -1.26, -1.58, -1.58, -1.26, -0.63, 0.89, 1.79, 1.79, 0.0, -0.0, -0.54, -0.54, -0.0, -0.0, -0.0, -0.0, 0.95, 0.57, 0.95, 1.34, 1.2, 1.34, 2.15, 2.84, 4.11, 2.5, 1.86, 0.0, -1.13, -1.19, 0.0, 0.0, 0.76, 2.31, 2.2, 2.22, 1.9, 2.17, 1.34, 2.24, 2.63, 3.39, 2.91, 2.91, 6.25, 6.25, 6.46, 7.16, 7.16, 7.16, 7.16, 7.57, 7.57, 8.22, 8.22, 8.86, 8.86, 9.21, 9.5, 8.87, 8.87, 8.59, 9.19, 9.17, 9.13, 8.82, 7.86, 7.51, 6.28, 5.69, 5.37, 5.35, 4.71, 3.73, 2.84, 2.21, 1.9, 0.99, 0.8, 0.6, 0.95, 0.63, 0.0, 0.89, 0.45, 0.89, 0.89, 0.63, 0.95, 1.2, 1.6, 1.26, 1.49, 1.49, 1.26, 1.26, 0.63, -0.0, -0.0, -1.58, -1.58, -1.26, -0.89, 0.0, 1.79, 2.68, 2.24, 0.6, -0.0, -0.0, -0.0, -0.0, -0.6, 0.0, 0.95, 1.49, 2.15, 2.6, 2.6, 1.58, 1.34, 2.5, 3.14, 2.53, 1.88, 1.24, 0.0, -1.11, -0.61, 0.0, 0.67, 1.23, 0.65, 0.0, 0.0, 2.24, 3.09, 3.87, 3.87, 3.82, 3.39, 3.39, 6.25, 6.25, 6.5, 6.92, 6.92, 6.92, 7.16, 7.57, 7.57, 8.22, 8.22, 8.86, 8.86, 9.21, 9.5, 9.21, 8.59, 8.87, 9.19, 9.17, 9.13, 8.82, 8.78, 8.15, 7.17, 6.28, 6.23, 5.93, 5.01, 4.94, 4.29, 5.08, 4.8, 3.88, 3.6, 3.32, 2.91, 2.63, 2.6, 2.68, 2.68, 2.68, 2.63, 1.7, 2.12, 2.17, 2.17, 2.6, 2.6, 2.6, 2.4, 1.86, 1.86, 1.26, -0.0, -0.63, -1.79, -2.24, -1.34, -0.89, 0.45, 2.24, 3.04, 2.4, -0.0, -0.0, -0.0, -0.0, 0.45, 0.0, 0.57, 1.88, 2.23, 2.5, 1.26, -0.61, -0.54, 0.89, 2.5, 2.53, 1.84, 1.2, 0.0, -1.26, -1.13, 0.0, 0.63, 0.0, -1.34, -1.24, -0.51, 1.11, 4.0, 4.09, 4.27, 4.11, 3.6, 3.6, 6.5, 6.5, 6.5, 6.92, 6.92, 6.92, 6.92, 7.57, 7.57, 8.22, 8.22, 8.59, 8.86, 9.5, 9.21, 9.5, 8.87, 8.87, 9.17, 9.17, 9.13, 9.08, 8.78, 8.73, 8.08, 7.44, 6.79, 7.23, 6.95, 6.41, 6.28, 6.0, 5.6, 4.9, 4.6, 4.34, 4.3, 3.98, 3.98, 3.58, 3.58, 3.58, 3.97, 3.87, 3.87, 4.3, 3.98, 3.09, 3.07, 3.07, 2.63, 2.6, 2.0, 1.86, 1.6, 0.45, -0.89, -2.68, -2.24, -1.34, 0.0, 1.79, 2.63, 2.0, 0.6, -0.0, -0.0, -0.0, 0.0, 0.0, 0.57, 1.88, 2.51, 1.16, -1.79, -3.07, -1.58, -0.0, 1.34, 1.58, 1.2, 1.16, 0.0, 0.45, 0.0, 0.0, -0.59, -2.15, -1.58, -1.16, -0.63, 0.0, 3.15, 3.79, 4.12, 3.78, 3.72, 3.72, 6.5, 6.5, 6.5, 6.92, 6.92, 6.92, 6.92, 7.57, 7.57, 7.57, 8.22, 8.59, 8.59, 9.21, 9.21, 9.19, 9.19, 9.17, 9.17, 9.46, 9.13, 9.08, 9.37, 9.08, 8.65, 8.93, 8.43, 8.15, 7.87, 7.31, 6.8, 6.6, 6.3, 5.88, 5.99, 5.7, 5.24, 5.33, 4.89, 4.92, 4.47, 4.47, 4.43, 2.63, 3.07, 5.09, 4.8, 4.47, 3.58, 3.13, 2.68, 2.68, 2.17, 2.17, 2.12, 1.34, 0.45, -1.79, -2.24, -1.34, 0.0, 1.34, 1.79, 0.89, -0.0, -0.0, -0.0, -0.0, -0.45, -0.6, 0.0, 2.5, 4.93, 2.79, 0.0, -3.07, -3.13, -1.79, -0.0, 0.89, 0.6, 1.0, 0.95, 0.63, -0.0, 0.0, -1.24, -1.84, -1.27, 0.0, 0.0, 0.0, 1.19, 3.12, 3.43, 3.48, 3.78, 3.78, 6.27, 6.27, 6.27, 6.92, 6.92, 6.92, 7.32, 7.59, 7.85, 8.23, 8.23, 8.87, 8.87, 8.87, 9.19, 9.19, 9.48, 9.17, 9.46, 9.13, 9.42, 9.08, 9.02, 9.3, 9.21, 9.1, 8.82, 8.68, 8.51, 8.3, 7.81, 7.51, 7.26, 7.21, 6.94, 6.6, 6.16, 6.23, 5.78, 5.81, 5.36, 4.92, 4.92, 4.47, 4.44, 3.07, 3.51, 5.36, 4.02, 3.13, 2.68, 2.24, 2.24, 2.24, 2.24, 2.24, 1.34, -0.89, -1.34, -1.34, -0.45, 0.45, 0.0, -0.89, -0.99, -0.57, -0.0, -0.0, -0.0, 0.0, 0.0, 1.84, 4.73, 7.71, 6.32, 2.23, -0.71, -2.17, -1.34, -0.0, 0.45, 0.57, 0.8, 0.89, 0.63, -0.0, -0.89, -0.99, -0.51, 0.0, 0.0, 0.0, 0.0, 1.94, 2.44, 3.12, 3.79, 3.79, 6.53, 6.53, 6.53, 6.94, 6.94, 7.19, 7.59, 7.59, 7.59, 7.96, 8.23, 8.23, 8.59, 8.87, 8.58, 9.17, 9.17, 9.46, 9.13, 9.42, 9.08, 9.02, 9.3, 8.94, 9.21, 9.1, 8.96, 9.07, 8.91, 9.21, 8.72, 8.48, 8.0, 7.74, 7.84, 7.4, 7.06, 6.61, 6.68, 6.23, 5.81, 5.81, 5.36, 4.92, 4.47, 3.13, 3.58, 5.81, 4.47, 3.13, 2.68, 2.68, 2.24, 2.24, 2.24, 2.24, 2.24, 1.34, 0.45, -1.34, -1.2, -0.6, -1.26, -2.12, -1.86, -1.26, -0.63, 0.0, 0.89, 1.9, 1.13, 0.66, 2.53, 5.77, 9.72, 9.6, 4.09, 0.63, -0.89, 0.0, 0.89, 0.63, 0.63, 1.34, 1.34, 0.89, -0.0, -0.63, -0.45, 0.0, 0.0, 0.0, 0.0, 1.11, 1.73, 2.4, 3.12, 3.12, 6.29, 6.29, 6.53, 6.94, 6.94, 6.94, 7.33, 7.59, 7.59, 7.96, 8.24, 8.24, 8.24, 8.58, 8.87, 8.87, 9.17, 9.46, 9.42, 9.37, 9.37, 9.3, 9.3, 9.21, 8.84, 9.1, 8.96, 8.68, 7.6, 8.72, 8.79, 8.91, 8.48, 8.21, 8.3, 7.87, 7.51, 7.51, 7.06, 6.68, 6.23, 6.23, 5.81, 5.36, 4.92, 5.36, 5.81, 5.36, 4.92, 4.02, 3.58, 3.13, 3.13, 3.13, 2.68, 2.24, 2.24, 2.24, 0.45, -2.68, -2.4, -1.9, -1.79, -1.58, -1.9, -1.58, -0.0, 0.0, 1.24, 2.86, 2.23, 0.59, 0.76, 3.32, 6.66, 8.67, 5.05, 1.7, 0.45, 1.79, 2.68, 2.68, 2.24, 3.58, 3.58, 2.63, 1.34, -0.99, -1.58, -1.26, -0.45, 0.0, 0.0, 0.51, 1.76, 1.94, 2.44, 2.44, 6.29, 6.29, 6.29, 6.7, 7.22, 7.22, 7.6, 7.6, 7.6, 7.96, 8.24, 8.24, 8.24, 8.24, 8.56, 8.56, 8.85, 8.82, 9.37, 9.37, 9.66, 9.3, 9.58, 9.21, 9.1, 9.35, 8.96, 9.2, 8.91, 7.89, 8.22, 8.48, 8.48, 8.64, 8.21, 8.3, 7.87, 7.51, 7.51, 7.06, 6.68, 6.23, 6.23, 5.81, 5.81, 5.81, 5.81, 5.81, 5.36, 4.92, 4.47, 4.02, 4.02, 3.58, 3.58, 3.13, 3.13, 2.24, 0.45, -2.6, -4.11, -1.2, -1.26, -1.58, -1.9, -1.24, -0.6, 0.0, 1.26, 2.8, 2.4, 0.95, 0.65, 2.07, 4.0, 3.87, 1.86, 0.45, 1.86, 3.39, 4.88, 4.92, 4.47, 4.02, 5.78, 4.89, 3.09, 0.45, -1.26, -1.9, -0.99, -0.63, 0.0, 0.0, 0.51, 1.8, 1.8, 1.8, 6.31, 6.31, 6.56, 6.96, 6.96, 6.96, 7.33, 7.6, 7.6, 8.24, 8.24, 8.24, 8.24, 8.24, 8.53, 8.53, 8.5, 8.5, 8.78, 9.02, 9.3, 9.76, 9.76, 9.48, 9.1, 9.35, 8.96, 9.2, 9.2, 9.01, 8.72, 8.48, 8.48, 8.64, 8.21, 8.3, 7.87, 7.97, 7.51, 7.07, 7.06, 6.68, 6.23, 6.23, 6.26, 6.26, 5.81, 5.81, 5.36, 5.36, 4.92, 4.92, 4.47, 4.47, 4.02, 3.58, 3.58, 3.58, 1.34, -1.2, -2.0, -1.34, -1.26, -2.21, -1.86, -1.49, -1.2, 0.45, 0.45, 0.95, 0.89, 0.89, 1.58, 3.64, 4.74, 3.14, 1.79, 1.88, 3.78, 5.86, 6.55, 5.36, 4.92, 4.92, 4.43, 5.7, 4.44, 2.24, -0.0, -1.26, -1.24, -0.8, 0.45, 0.0, 0.0, 1.13, 1.61, 1.61, 6.31, 6.31, 6.31, 6.7, 6.97, 7.61, 7.61, 7.61, 7.95, 7.95, 7.95, 8.24, 8.24, 8.24, 8.22, 8.5, 8.78, 8.78, 8.78, 9.3, 9.3, 9.58, 9.38, 9.63, 9.63, 9.35, 9.35, 9.6, 9.3, 9.42, 9.21, 8.96, 8.91, 8.64, 8.64, 8.33, 8.3, 7.87, 7.97, 7.51, 7.07, 7.13, 6.68, 6.68, 6.68, 6.68, 6.23, 6.23, 5.78, 5.36, 5.36, 4.92, 4.92, 4.47, 4.47, 4.02, 4.02, 3.58, 3.58, 2.17, -1.79, -1.6, -2.8, -2.4, -2.0, -2.24, -1.79, -1.34, -0.63, 0.0, 0.0, 0.0, 2.6, 7.07, 7.69, 6.36, 5.32, 7.07, 7.33, 8.0, 7.01, 5.36, 4.02, 3.98, 3.58, 5.36, 4.47, 2.24, 1.34, 0.63, -0.0, -0.6, -0.0, 0.0, 0.0, 0.53, 0.99, 0.99, 6.33, 6.33, 6.58, 6.97, 6.97, 7.33, 7.33, 7.61, 8.24, 8.24, 8.24, 8.24, 8.24, 8.22, 8.22, 8.78, 8.45, 8.73, 8.73, 8.73, 9.21, 9.21, 9.48, 9.48, 9.48, 9.48, 9.71, 9.71, 9.51, 9.51, 9.63, 9.21, 8.96, 9.11, 8.64, 8.64, 8.77, 8.33, 7.87, 7.97, 7.51, 7.07, 7.13, 6.68, 6.68, 6.68, 6.68, 6.68, 6.23, 5.78, 5.33, 5.33, 4.89, 4.92, 4.47, 4.44, 3.98, 3.98, 3.53, 3.09, 1.34, -2.8, -3.82, -2.17, -1.79, -2.68, -2.24, -2.24, -1.7, -0.6, 0.0, 0.0, 2.23, 7.12, 9.72, 8.01, 7.12, 7.98, 8.91, 8.38, 7.15, 4.47, 3.58, 3.13, 2.68, 3.09, 3.53, 3.39, 3.07, 2.17, 1.2, -0.0, -0.0, 0.0, 0.0, 0.6, 0.51, 0.51, 6.33, 6.33, 6.33, 6.71, 6.98, 7.61, 7.61, 7.61, 7.93, 7.93, 8.22, 8.22, 8.22, 8.19, 8.45, 8.45, 8.73, 8.73, 8.73, 8.65, 8.65, 8.65, 9.1, 9.1, 9.35, 9.35, 9.71, 9.71, 9.51, 9.51, 9.7, 9.21, 9.39, 8.96, 9.11, 9.11, 8.64, 8.77, 8.33, 7.87, 7.51, 7.51, 7.06, 4.92, 6.68, 7.13, 7.13, 6.61, 6.16, 5.78, 5.78, 5.33, 5.33, 4.89, 4.89, 4.88, 4.44, 4.43, 3.97, 3.53, 2.17, -0.89, -3.39, -2.24, -1.79, -2.68, -2.6, -2.68, -1.79, -1.6, -0.6, -0.63, 0.89, 4.92, 9.39, 9.36, 6.55, 7.28, 9.11, 8.24, 6.55, 4.02, 3.58, 3.13, 3.07, 3.39, 4.11, 4.11, 3.87, 3.53, 2.68, 1.34, 0.45, 0.45, 0.32, 0.6, 0.57, 0.65, 6.34, 6.34, 6.61, 6.98, 6.98, 6.98, 7.32, 7.61, 8.22, 8.22, 8.22, 8.19, 8.19, 8.45, 8.45, 8.73, 8.73, 8.38, 8.65, 8.65, 8.65, 8.93, 8.93, 9.35, 9.35, 8.96, 9.2, 9.2, 9.42, 9.42, 9.21, 9.21, 9.39, 8.96, 8.96, 9.11, 9.11, 8.64, 8.77, 8.3, 7.87, 7.4, 7.06, 4.87, 7.13, 7.58, 7.51, 6.94, 6.6, 6.14, 5.7, 5.7, 5.24, 5.24, 4.8, 4.88, 4.88, 4.34, 3.87, 3.98, 2.91, 0.63, -0.89, -2.17, -1.7, -2.4, -3.39, -2.24, -2.24, -1.7, -1.6, -1.2, 0.0, 3.58, 8.94, 8.94, 5.44, 7.02, 8.86, 8.55, 5.31, 3.87, 3.58, 3.53, 3.39, 3.6, 4.52, 4.52, 4.73, 4.3, 3.53, 2.24, 1.6, 1.26, 0.8, 0.57, 0.71, 0.57, 6.34, 6.34, 6.34, 6.7, 6.98, 6.98, 7.6, 7.6, 7.9, 7.9, 8.19, 8.19, 8.45, 8.73, 8.73, 8.38, 8.38, 8.65, 8.65, 8.65, 8.93, 8.55, 8.82, 8.96, 8.96, 9.2, 9.2, 9.2, 9.42, 9.01, 9.21, 9.21, 8.79, 8.96, 8.96, 9.11, 8.64, 8.64, 8.64, 8.33, 7.87, 7.84, 7.4, 6.61, 5.77, 7.97, 7.87, 6.94, 6.04, 5.99, 5.57, 5.67, 5.24, 5.24, 5.24, 5.24, 4.77, 4.34, 4.3, 3.87, 3.82, 2.4, 0.45, -0.95, -2.4, -3.13, -2.24, -2.24, -2.24, -1.79, -1.7, -0.95, 0.0, 2.21, 5.36, 6.98, 4.92, 4.66, 7.33, 6.98, 4.27, 3.53, 4.02, 4.73, 4.93, 5.02, 5.94, 5.64, 5.2, 5.32, 4.47, 3.13, 1.86, 0.71, 0.65, 0.65, 0.65, 0.71, 6.34, 6.34, 6.34, 6.7, 6.98, 6.98, 7.6, 7.6, 7.9, 8.19, 8.19, 8.73, 8.73, 8.38, 8.38, 8.38, 8.65, 8.65, 8.93, 8.93, 8.55, 8.55, 8.82, 8.96, 8.96, 9.2, 9.2, 9.01, 9.01, 9.01, 9.21, 8.79, 8.72, 8.91, 8.91, 8.48, 8.64, 8.64, 8.21, 8.3, 7.87, 7.87, 7.4, 7.37, 7.26, 6.98, 7.84, 6.94, 6.04, 5.57, 5.57, 5.51, 5.09, 5.09, 5.09, 5.09, 5.24, 4.77, 4.3, 4.3, 4.11, 3.07, 0.45, -0.89, -2.24, -2.24, -1.34, -3.13, -2.24, -2.24, -1.2, -0.57, 0.0, 1.4, 2.23, 3.04, 2.4, 2.17, 2.79, 2.53, 2.49, 3.09, 4.3, 7.06, 7.28, 6.58, 5.78, 6.22, 6.26, 5.81, 5.36, 4.02, 2.4, 0.54, 0.0, 0.0, 0.61, 0.61, 6.63, 6.63, 6.98, 6.98, 6.98, 6.98, 7.3, 7.3, 7.59, 7.86, 8.15, 8.15, 8.38, 8.38, 8.65, 8.65, 8.65, 8.65, 8.93, 8.55, 8.55, 8.82, 8.82, 8.96, 9.2, 9.2, 8.8, 9.01, 9.01, 9.01, 8.72, 8.72, 8.72, 8.91, 8.48, 8.48, 8.64, 8.21, 8.17, 8.17, 7.87, 7.87, 7.4, 7.26, 7.69, 8.17, 7.87, 6.94, 6.47, 5.99, 5.57, 5.51, 5.09, 5.09, 5.09, 5.09, 4.6, 4.6, 4.6, 4.11, 4.11, 3.6, 1.26, 0.45, -1.79, -1.79, -1.79, -2.24, -1.79, -2.24, -1.6, -0.57, 0.0, 0.7, 0.76, 0.8, 0.89, 0.89, 1.34, 1.79, 2.4, 4.27, 7.73, 9.4, 8.71, 7.56, 5.81, 5.81, 5.81, 6.26, 5.81, 4.87, 3.39, 1.2, 0.0, 0.0, 0.0, 0.0, 6.35, 6.35, 6.98, 6.98, 6.98, 6.98, 7.3, 7.59, 7.59, 7.59, 7.86, 8.15, 8.38, 8.65, 8.65, 8.65, 8.65, 8.65, 8.93, 8.55, 8.82, 8.82, 8.82, 8.96, 9.2, 9.2, 8.8, 9.01, 8.91, 8.91, 8.72, 8.72, 8.72, 8.3, 8.48, 8.48, 8.42, 8.17, 8.17, 8.17, 7.74, 7.69, 7.69, 7.69, 7.69, 7.74, 7.87, 7.4, 6.94, 6.47, 5.81, 5.4, 4.9, 4.9, 4.8, 5.02, 5.02, 4.6, 4.6, 4.6, 4.52, 3.72, 1.9, 0.0, -1.34, -1.58, -2.68, -2.68, -1.79, -1.79, -1.2, -0.71, 0.0, 0.59, 1.27, 1.13, 1.86, 3.13, 3.98, 5.05, 7.68, 9.46, 10.65, 10.1, 8.82, 6.67, 5.36, 4.92, 5.32, 5.64, 5.32, 5.32, 4.24, 0.0, 0.0, 0.0, 0.0, 0.0, 6.35, 6.35, 6.69, 6.98, 6.98, 6.98, 6.97, 7.59, 7.59, 7.59, 7.59, 8.15, 8.15, 8.65, 8.65, 8.65, 8.65, 8.93, 8.55, 8.55, 8.82, 8.82, 8.82, 8.96, 9.2, 8.68, 8.68, 8.91, 8.91, 8.51, 8.72, 8.72, 8.72, 8.3, 8.48, 8.42, 8.0, 8.0, 8.17, 8.17, 7.74, 7.69, 7.69, 7.69, 7.69, 7.69, 7.69, 7.26, 7.26, 6.79, 6.3, 5.81, 5.31, 4.9, 4.8, 4.8, 4.8, 4.8, 4.4, 4.4, 4.4, 3.88, 2.21, 0.0, -0.89, -2.0, -2.8, -1.86, -2.12, -1.79, -0.95, 0.0, 0.0, 1.27, 2.0, 2.53, 3.07, 4.47, 7.28, 8.93, 10.18, 11.45, 11.94, 10.18, 7.48, 6.22, 5.81, 4.88, 5.16, 4.73, 7.31, 4.11, 2.21, 0.0, -1.88, -1.84, -1.84, -1.84, 6.35, 6.35, 6.35, 6.69, 6.69, 6.97, 6.97, 7.27, 7.27, 7.27, 7.55, 7.55, 7.81, 8.44, 8.65, 8.65, 8.93, 8.55, 8.55, 8.55, 8.82, 8.82, 8.82, 9.07, 9.07, 8.68, 8.68, 8.91, 8.91, 8.51, 8.51, 8.72, 8.72, 8.3, 8.3, 8.42, 8.0, 8.0, 8.0, 8.0, 7.58, 7.69, 7.69, 7.69, 7.26, 7.26, 7.26, 7.26, 7.21, 6.79, 6.72, 6.3, 5.81, 5.31, 4.9, 4.8, 4.8, 4.8, 4.8, 4.4, 4.4, 4.27, 2.79, 0.6, -1.2, -2.4, -3.2, -2.0, -2.17, -1.34, -0.6, 0.0, 0.0, 0.7, 1.61, 1.86, 2.68, 4.41, 6.36, 6.39, 7.52, 10.55, 11.99, 10.38, 8.06, 5.67, 5.36, 5.32, 4.52, 6.0, 5.4, 3.45, 1.61, -1.2, -2.5, -3.07, -3.07, -3.07, 6.35, 6.35, 6.35, 6.69, 6.97, 6.97, 6.97, 7.27, 7.27, 7.27, 7.55, 7.55, 7.81, 7.81, 8.08, 8.29, 8.55, 8.55, 8.55, 8.55, 8.82, 8.82, 8.82, 9.07, 9.07, 8.68, 8.68, 8.91, 8.91, 8.51, 8.51, 8.72, 8.72, 8.3, 8.3, 8.42, 8.0, 8.0, 8.0, 8.0, 8.0, 7.51, 7.51, 7.51, 7.09, 7.09, 7.09, 7.01, 7.01, 6.6, 6.51, 6.1, 6.0, 5.6, 5.31, 4.8, 4.8, 4.8, 4.8, 4.8, 4.4, 4.27, 2.84, 1.24, -0.89, -2.4, -2.53, -3.39, -4.02, -1.79, -0.95, -0.57, 0.0, 0.0, 0.57, 1.34, 2.24, 3.04, 3.49, 2.88, 3.79, 8.93, 11.44, 10.35, 7.92, 5.02, 4.02, 3.98, 3.82, 2.5, 2.5, 2.5, 1.9, 0.0, -0.54, -1.24, -1.24, -1.24, 6.35, 6.35, 6.35, 6.35, 6.64, 6.97, 6.97, 6.97, 7.27, 7.27, 7.55, 7.55, 7.55, 7.81, 8.08, 8.08, 8.08, 8.55, 8.55, 8.55, 8.55, 8.82, 8.82, 9.07, 8.68, 8.68, 8.68, 8.91, 8.91, 8.51, 8.51, 8.72, 8.72, 8.3, 8.22, 8.22, 7.81, 8.0, 8.0, 8.0, 8.0, 7.51, 7.51, 7.51, 7.09, 7.01, 7.01, 7.01, 6.6, 6.51, 6.51, 6.1, 6.1, 5.6, 5.08, 5.08, 4.55, 4.8, 4.8, 4.8, 4.8, 4.27, 3.43, 1.61, 0.45, -2.4, -3.2, -3.2, -3.82, -2.17, -1.86, -1.2, -0.6, 0.0, 0.0, 0.45, 1.79, 1.6, 1.88, 2.07, 2.79, 6.35, 8.93, 7.9, 5.69, 3.72, 3.39, 2.68, 1.79, 2.12, 1.86, 1.86, 1.26, 0.0, -0.57, -0.99, -0.99, -0.99, 5.72, 5.72, 5.72, 6.08, 6.35, 6.97, 6.97, 6.97, 7.27, 7.55, 7.55, 7.55, 7.55, 7.55, 8.08, 8.08, 8.08, 8.37, 8.55, 8.55, 8.82, 8.82, 8.43, 8.68, 8.68, 8.68, 8.68, 8.91, 8.91, 8.51, 8.51, 8.51, 8.72, 8.3, 8.22, 8.22, 8.22, 7.81, 7.81, 7.81, 7.93, 7.51, 7.51, 7.51, 7.09, 7.01, 7.01, 6.6, 6.6, 6.51, 6.51, 6.1, 6.1, 6.0, 5.47, 5.08, 4.93, 4.55, 4.55, 4.55, 4.55, 4.0, 3.43, 1.88, -0.95, -1.79, -2.24, -1.7, -1.86, -1.9, -1.49, -1.24, -0.89, 0.0, 0.0, 0.0, 0.45, -0.0, -0.0, 1.16, 2.23, 3.48, 4.46, 5.21, 3.79, 3.72, 2.15, 0.63, 0.45, 1.34, 1.7, 0.32, 0.0, -0.63, -1.26, -1.58, -1.58, -1.58, 5.72, 5.72, 6.0, 6.35, 6.35, 6.35, 6.67, 6.97, 6.97, 7.55, 7.55, 7.55, 7.55, 7.55, 7.85, 8.08, 8.08, 8.08, 8.37, 8.0, 8.43, 8.43, 8.43, 8.68, 8.68, 8.68, 8.68, 8.68, 8.91, 8.51, 8.51, 8.51, 8.51, 8.3, 8.22, 8.22, 8.22, 7.81, 7.81, 7.71, 7.71, 7.31, 7.51, 7.51, 7.01, 7.01, 7.01, 6.6, 6.51, 6.51, 6.1, 6.1, 6.0, 6.0, 5.47, 5.47, 5.08, 4.93, 4.55, 4.55, 4.55, 4.0, 3.78, 1.84, -0.6, -1.79, -2.24, -1.79, -0.95, -1.26, -1.24, -0.71, -0.57, -0.45, -0.95, -0.95, -1.34, -1.34, -0.6, 0.54, 1.4, 1.84, 1.8, 3.15, 4.09, 3.14, 1.16, -0.0, 0.0, 0.95, 1.2, 0.45, -1.26, -1.34, -2.12, -2.4, -2.4, -2.4, 5.72, 5.72, 5.72, 6.0, 6.35, 6.35, 6.35, 6.67, 6.67, 6.95, 7.27, 7.23, 7.23, 7.23, 7.51, 7.51, 7.51, 7.73, 8.0, 8.0, 8.0, 8.27, 8.43, 8.43, 8.68, 8.68, 8.68, 8.68, 8.28, 8.51, 8.51, 8.51, 8.51, 8.0, 8.22, 8.22, 8.22, 7.81, 7.81, 7.71, 7.71, 7.31, 7.31, 7.51, 7.01, 7.01, 7.01, 6.6, 6.51, 6.51, 6.1, 6.0, 5.75, 5.75, 5.37, 5.21, 5.21, 4.93, 4.93, 4.55, 4.55, 4.55, 4.0, 2.51, 0.0, -1.79, -1.79, -1.34, -0.89, -0.89, -1.2, -0.6, -0.6, -0.63, -1.7, -2.4, -2.6, -1.79, -1.2, -0.0, 0.71, 1.4, 1.16, 2.84, 3.6, 1.16, -0.0, -0.0, 0.0, 0.0, 0.57, -0.0, -1.24, -1.79, -2.6, -2.91, -2.91, -2.91, 5.72, 5.72, 5.72, 5.72, 6.0, 6.35, 6.35, 6.35, 6.67, 6.95, 6.95, 6.95, 7.23, 7.23, 7.51, 7.51, 7.51, 7.51, 8.0, 8.0, 8.0, 8.0, 8.27, 8.27, 8.68, 8.68, 8.68, 8.28, 8.28, 8.51, 8.51, 8.4, 8.4, 8.0, 8.0, 8.22, 8.22, 7.81, 7.81, 7.71, 7.31, 7.31, 7.31, 6.8, 7.01, 7.01, 7.01, 6.6, 6.51, 6.51, 6.1, 6.0, 5.75, 5.75, 5.75, 5.21, 5.21, 4.84, 4.93, 4.93, 4.55, 4.55, 4.0, 2.84, 1.24, -0.89, -1.34, -1.2, -0.95, -1.2, -1.2, -1.2, -0.63, 0.45, -1.7, -2.4, -2.6, -1.79, -1.6, -0.6, -0.0, 0.54, 1.16, 2.5, 1.0, -0.0, -0.59, -0.0, 0.0, 0.0, -0.54, -0.45, -0.8, -2.24, -2.63, -2.91, -2.91, -2.91, 5.34, 5.34, 5.72, 5.72, 5.72, 6.06, 6.35, 6.35, 6.35, 6.95, 6.95, 6.95, 6.95, 6.95, 7.51, 7.51, 7.51, 7.51, 7.8, 7.8, 8.0, 8.0, 7.9, 7.9, 8.15, 8.15, 8.15, 8.28, 8.28, 8.4, 8.4, 8.4, 8.0, 8.0, 8.0, 8.0, 8.22, 7.81, 7.81, 7.71, 7.31, 7.31, 7.31, 6.8, 6.8, 6.8, 6.8, 6.6, 6.51, 6.51, 5.89, 5.75, 5.75, 5.75, 5.75, 5.75, 5.21, 5.21, 4.84, 4.65, 4.55, 4.55, 4.0, 3.43, 1.61, 0.45, -1.2, -1.7, -1.26, -1.26, -1.24, -1.2, -1.2, -0.57, -0.57, -1.86, -1.86, -1.79, -1.2, -0.95, -0.6, -0.0, 0.51, -0.0, -0.0, -0.51, -1.13, -1.2, -0.89, -1.9, -2.4, -1.34, -1.2, -2.24, -3.07, -2.91, -2.91, -2.91, 5.34, 5.34, 5.34, 5.72, 5.72, 5.72, 6.06, 6.06, 6.65, 6.65, 6.95, 6.95, 6.95, 6.95, 7.25, 7.51, 7.51, 7.51, 7.8, 7.44, 7.44, 7.44, 7.9, 7.9, 7.9, 8.15, 8.15, 8.15, 8.15, 8.4, 8.4, 8.0, 8.0, 8.0, 8.0, 8.0, 7.6, 7.81, 7.71, 7.71, 7.31, 7.31, 7.31, 6.8, 6.8, 6.8, 6.8, 6.28, 6.28, 6.28, 6.28, 5.75, 5.75, 5.75, 5.75, 5.75, 5.58, 5.21, 5.21, 4.65, 4.65, 4.37, 4.0, 3.43, 1.61, 0.0, -1.6, -1.79, -1.7, -1.86, -1.9, -1.88, -1.88, -0.54, -0.57, 0.0, -1.24, -1.26, -1.2, -0.89, -0.63, -0.57, -0.0, -0.0, -0.0, -0.53, -1.84, -2.53, -3.53, -3.98, -3.53, -1.79, -1.7, -2.24, -2.63, -2.91, -2.91, -2.91, 5.09, 5.09, 5.09, 5.34, 5.72, 5.72, 5.72, 6.34, 6.34, 6.34, 6.34, 6.95, 6.95, 6.95, 6.92, 6.92, 6.92, 7.17, 7.44, 7.44, 7.44, 7.44, 7.72, 7.72, 7.72, 7.9, 8.15, 8.15, 8.15, 8.15, 8.4, 8.0, 8.0, 8.0, 8.0, 8.0, 7.6, 7.71, 7.71, 7.71, 7.31, 7.31, 7.31, 7.2, 6.8, 6.8, 6.8, 6.67, 6.28, 6.28, 6.28, 6.13, 5.75, 5.75, 5.58, 5.58, 5.58, 5.58, 5.21, 5.01, 4.65, 4.37, 4.0, 3.43, 2.23, 0.0, -1.2, -2.24, -3.53, -2.91, -2.91, -2.68, -2.5, -1.9, -1.26, 0.0, 0.0, -0.57, -0.99, -1.2, -1.34, -1.2, -0.61, 0.61, 1.0, -0.0, -1.88, -3.49, -3.87, -4.47, -4.43, -3.13, -2.17, -1.79, -2.24, -2.63, -2.63, -2.63, 5.09, 5.09, 5.09, 5.09, 5.72, 5.72, 5.72, 6.01, 6.34, 6.34, 6.34, 6.34, 6.64, 6.64, 6.92, 6.92, 6.92, 6.92, 7.44, 7.44, 7.44, 7.44, 7.72, 7.72, 7.72, 7.35, 7.61, 7.61, 7.76, 7.76, 7.76, 8.0, 8.0, 8.0, 8.0, 7.6, 7.48, 7.48, 7.71, 7.71, 7.31, 7.31, 7.31, 7.2, 6.8, 6.8, 6.8, 6.8, 6.28, 6.28, 6.28, 5.75, 5.75, 5.75, 5.58, 5.29, 5.29, 5.29, 5.21, 5.21, 4.65, 4.29, 4.0, 3.43, 2.84, 0.71, -1.34, -3.13, -4.44, -3.32, -3.32, -3.32, -2.5, -2.8, -1.86, 0.0, 0.0, 0.0, -0.57, -0.99, -1.34, -1.49, -0.99, -0.0, 1.2, 0.6, -0.99, -2.53, -3.6, -4.02, -4.47, -4.02, -2.68, -1.79, -1.7, -2.17, -2.17, -2.17, 4.69, 4.69, 5.09, 5.09, 5.09, 5.72, 5.72, 6.01, 6.01, 6.34, 6.34, 6.34, 6.34, 6.64, 6.92, 6.92, 6.92, 6.92, 7.21, 7.21, 7.44, 7.09, 7.35, 7.35, 7.35, 7.35, 7.35, 7.61, 7.61, 7.61, 7.61, 7.87, 8.0, 8.0, 7.6, 7.48, 7.48, 7.71, 7.71, 7.31, 7.31, 7.31, 7.2, 7.2, 6.8, 6.8, 6.8, 6.8, 6.28, 6.28, 6.28, 6.13, 5.75, 5.75, 5.58, 5.29, 5.29, 5.29, 4.94, 5.21, 5.01, 4.65, 4.07, 3.48, 2.86, 1.4, -0.95, -2.68, -4.3, -3.32, -3.07, -2.86, -2.86, -2.21, -1.88, -0.54, 0.0, 0.0, 0.0, -0.95, -1.34, -1.34, -1.2, -0.0, 0.99, 1.2, -0.0, -1.58, -2.5, -3.39, -4.02, -4.43, -3.39, -1.86, -1.86, -1.86, -1.86, -1.86, 4.69, 4.69, 4.69, 5.09, 5.09, 5.09, 5.45, 5.45, 6.01, 6.01, 6.34, 6.34, 6.64, 6.64, 6.64, 6.64, 6.59, 6.59, 6.87, 6.87, 6.87, 6.87, 7.15, 7.35, 7.35, 7.35, 7.35, 7.61, 7.61, 7.61, 7.61, 7.61, 7.48, 7.48, 7.48, 7.48, 7.71, 7.71, 7.71, 7.31, 7.31, 7.31, 7.2, 7.2, 6.8, 6.8, 6.8, 6.8, 6.28, 6.28, 6.28, 6.13, 5.75, 5.75, 5.49, 5.29, 5.29, 5.29, 4.94, 4.94, 4.71, 4.65, 4.07, 3.48, 3.15, 1.8, 0.0, -2.12, -3.32, -3.78, -4.41, -2.84, -2.53, -1.88, -1.16, -0.61, -0.65, 0.0, 0.0, 0.0, -0.63, -1.34, -1.34, -0.0, 0.6, 1.2, 0.45, -0.63, -1.86, -2.91, -3.58, -4.43, -3.6, -2.5, -1.9, -1.58, -1.58, -1.58, 4.69, 4.69, 4.69, 4.69, 5.09, 5.09, 5.36, 5.72, 5.72, 5.72, 5.72, 5.72, 6.32, 6.32, 6.32, 6.32, 6.32, 6.62, 6.87, 6.87, 6.87, 6.87, 7.15, 7.15, 7.35, 7.35, 7.35, 7.61, 7.23, 7.23, 7.23, 7.23, 7.48, 7.48, 7.48, 7.48, 7.48, 7.71, 7.31, 7.31, 7.31, 7.31, 7.2, 6.8, 6.8, 6.8, 6.8, 6.67, 6.28, 6.28, 6.28, 6.13, 6.13, 5.49, 5.49, 5.29, 5.29, 5.29, 4.94, 4.94, 4.71, 4.37, 4.11, 3.79, 3.2, 2.48, 0.65, -0.8, -2.4, -3.35, -4.07, -2.53, -2.21, -1.98, -1.88, -1.88, -1.9, -0.63, 0.0, 0.0, -0.4, -0.95, -0.89, 0.45, 0.63, 1.2, 0.89, 0.0, -0.45, -1.79, -3.13, -3.97, -3.82, -2.91, -2.4, -1.26, -1.26, -1.26, 4.69, 4.69, 4.69, 4.69, 4.69, 5.09, 5.36, 5.36, 5.36, 5.36, 5.72, 5.72, 5.72, 6.32, 6.32, 6.32, 6.62, 6.62, 6.62, 6.62, 6.87, 6.87, 7.15, 7.15, 7.15, 6.79, 6.79, 7.07, 7.07, 7.07, 7.07, 7.23, 7.48, 7.48, 7.48, 7.08, 7.08, 7.31, 7.31, 7.31, 7.31, 7.2, 7.2, 6.8, 6.8, 6.8, 6.8, 6.8, 6.67, 6.28, 6.28, 6.13, 6.13, 5.49, 5.49, 5.29, 5.29, 5.29, 5.29, 4.71, 4.71, 4.71, 4.11, 3.79, 3.49, 2.86, 1.13, 0.0, -1.9, -3.35, -3.43, -3.72, -3.07, -3.82, -2.68, -2.5, -2.15, -0.95, -0.6, 0.0, 0.0, 0.0, -0.63, 0.45, 0.45, 1.34, 1.34, 0.89, 0.89, 0.45, 0.45, -0.63, -1.7, -2.17, -1.49, -0.6, -0.6, -0.6, 4.69, 4.69, 4.69, 4.69, 4.69, 5.09, 5.36, 5.36, 5.36, 5.36, 5.72, 5.72, 5.72, 6.32, 6.32, 6.32, 6.62, 6.62, 6.62, 6.62, 6.87, 6.87, 7.15, 7.15, 7.15, 6.79, 6.79, 7.07, 7.07, 7.07, 7.07, 7.23, 7.48, 7.48, 7.48, 7.08, 7.08, 7.31, 7.31, 7.31, 7.31, 7.2, 7.2, 6.8, 6.8, 6.8, 6.8, 6.8, 6.67, 6.28, 6.28, 6.13, 6.13, 5.49, 5.49, 5.29, 5.29, 5.29, 5.29, 4.71, 4.71, 4.71, 4.11, 3.79, 3.49, 2.86, 1.13, 0.0, -1.9, -3.35, -3.43, -3.72, -3.07, -3.82, -2.68, -2.5, -1.86, -0.95, -0.6, 0.0, 0.0, 0.0, 0.0, 0.6, 1.2, 1.79, 2.24, 2.24, 2.68, 3.13, 3.53, 3.53, 3.07, 1.79, 0.63, 0.4, 0.4, 0.4]}, {"header": {"dx": 0.06612293990616946, "dy": 0.0552356325346848, "nx": 98, "ny": 59, "la1": 35.046912555036876, "la2": 31.78801023549047, "lo1": -121.43107172385933, "lo2": -114.95102361305473, "refTime": "2026041513", "parameterCategory": 1, "parameterNumber": 3}, "data": [-11.75, -11.36, -10.55, -9.88, -8.68, -8.0, -7.2, -6.51, -5.81, -4.77, -3.58, -3.07, -2.12, -1.86, -1.9, -2.53, -2.73, -3.11, -3.2, -2.26, -0.95, -0.0, 1.41, 2.3, 2.15, 1.88, 1.24, 0.6, -0.0, 0.0, 0.63, 0.6, 1.24, 1.2, 0.61, 0.61, 0.0, 0.0, 0.0, 0.63, 1.2, 1.2, 0.0, -1.4, -3.45, -5.38, -6.97, -6.87, -6.97, -6.31, -3.11, 0.0, 0.95, 1.58, 2.5, 3.45, 3.84, 3.07, 2.2, 2.2, 1.49, 0.54, 0.0, 0.45, 1.26, 1.2, 1.49, 1.47, 1.45, 1.52, 1.47, 0.76, 0.0, 0.0, 0.0, 0.76, 1.45, 0.69, 0.0, -0.0, 1.49, 1.58, 1.26, -0.0, -0.0, -0.0, 0.0, 0.0, 0.0, -1.16, -2.48, -4.43, -5.09, -4.12, -3.16, -2.84, -2.51, -2.51, -11.88, -11.36, -11.08, -10.16, -9.35, -8.68, -7.48, -6.8, -6.1, -5.31, -3.87, -1.79, -1.34, -1.34, -1.34, -1.79, -2.21, -2.99, -3.2, -3.0, -3.35, -1.07, -0.0, 1.8, 2.53, 2.53, 1.9, 1.24, 0.6, -0.0, 0.45, 1.34, 1.49, 1.9, 1.61, 1.16, 0.61, 0.0, -0.54, 0.0, 0.0, 0.0, -1.6, -5.37, -7.64, -8.53, -8.46, -8.53, -7.82, -5.59, 0.0, 2.6, 2.23, 2.5, 3.45, 4.22, 3.84, 3.43, 3.22, 2.29, 1.47, 1.33, 1.24, 1.58, 1.9, 1.88, 2.0, 1.35, 1.41, 2.18, 2.23, 1.49, 0.0, 0.0, 0.0, 0.0, 1.45, 0.69, 0.0, -0.0, 1.49, 1.58, 1.26, -0.0, -0.0, -0.0, 0.0, 0.0, 0.0, -1.16, -2.48, -4.43, -5.09, -4.12, -3.16, -2.84, -2.51, -2.51, -11.88, -11.75, -11.08, -10.55, -9.88, -9.2, -8.15, -7.48, -6.8, -5.6, -4.66, -3.98, -2.17, -1.7, -1.49, -1.26, -1.34, -2.21, -2.88, -3.4, -3.0, -3.35, -3.35, -1.03, 0.7, 1.88, 2.5, 1.9, 0.99, -0.0, -0.0, -0.0, 0.45, 0.89, 1.26, 0.71, 0.61, 0.0, -0.61, -1.2, -1.88, -4.12, -7.33, -9.27, -10.55, -10.55, -9.27, -7.31, -5.06, -1.2, 2.4, 3.32, 2.86, 3.83, 4.0, 3.84, 3.48, 3.22, 3.11, 2.29, 2.29, 2.0, 2.41, 3.49, 2.84, 2.79, 2.98, 2.88, 3.11, 2.9, 3.15, 2.23, 0.78, -0.76, -1.2, -0.61, 0.0, 0.77, -0.53, -0.6, -0.0, 0.63, -0.0, -0.6, -0.99, -0.6, -0.0, 0.0, -0.57, -1.8, -3.79, -5.3, -6.06, -6.08, -4.37, -3.16, -2.23, -1.84, -12.28, -11.75, -11.6, -11.08, -10.16, -9.48, -8.68, -8.0, -7.31, -6.6, -5.81, -4.77, -2.63, -2.6, -2.17, -1.86, -1.58, -1.79, -2.23, -2.12, -1.47, -0.96, -3.35, -3.06, -1.55, -0.0, 1.88, 1.58, 1.6, -0.0, -1.24, -1.61, -1.88, -0.8, 0.0, 0.0, 0.0, -0.7, -2.07, -3.43, -6.06, -8.65, -9.92, -9.3, -7.68, -6.01, -4.36, -2.07, -0.61, 1.2, 3.14, 3.45, 3.45, 3.83, 3.49, 3.48, 3.07, 2.98, 3.11, 2.2, 1.47, 2.3, 3.48, 4.09, 4.46, 4.43, 4.01, 4.74, 5.35, 5.59, 5.38, 3.61, 1.58, 0.0, -1.86, -2.5, -1.94, -1.5, -0.61, -1.24, -1.2, -0.6, -0.6, -1.2, -1.16, -0.57, 0.0, 0.0, -1.84, -3.79, -5.21, -5.3, -6.06, -5.72, -3.49, -2.23, -1.13, -1.27, -12.28, -11.75, -11.6, -11.08, -10.55, -9.88, -9.35, -8.68, -8.0, -7.31, -6.51, -5.4, -3.07, -3.07, -3.07, -3.07, -2.91, -2.17, -2.23, -2.18, -2.17, -0.0, -0.0, -1.01, -1.55, -0.95, -0.0, -0.0, 0.0, 0.0, -1.34, -2.5, -3.14, -3.14, -2.68, -2.8, -2.53, -3.22, -5.3, -7.68, -8.68, -7.02, -4.36, -1.41, -0.7, 0.0, 0.0, 0.0, 0.7, 2.2, 2.51, 2.84, 2.15, 2.53, 2.84, 3.07, 2.73, 2.98, 3.11, 2.35, 1.47, 1.84, 4.0, 5.05, 5.46, 5.09, 4.43, 4.11, 5.43, 5.59, 4.5, 3.69, 2.76, 1.41, 0.0, -2.91, -4.09, -3.91, -1.27, -1.58, -1.84, -1.88, -1.61, -1.27, -1.8, -1.9, -2.17, -2.23, -4.07, -5.94, -4.83, -4.36, -4.74, -2.79, -1.6, -0.54, -0.57, -1.35, -12.28, -11.88, -11.99, -11.47, -11.08, -10.16, -9.88, -9.2, -8.51, -7.6, -6.8, -6.3, -3.07, -3.07, -3.51, -3.97, -3.97, -3.53, -2.91, -3.69, -5.0, -3.06, -2.21, -0.0, -0.0, -1.03, -2.0, -1.49, -1.6, -1.34, -1.26, -1.2, -1.79, -3.51, -4.47, -5.32, -4.73, -5.09, -6.32, -7.67, -7.47, -4.29, -1.16, 0.0, 0.76, 0.77, 0.0, 0.0, 0.69, 1.41, 1.33, 1.33, 2.15, 2.15, 1.84, 2.0, 2.0, 2.0, 2.29, 1.49, 1.6, 2.15, 4.0, 4.84, 4.46, 4.74, 4.43, 3.72, 2.79, 2.88, 2.18, 1.52, 3.06, 3.06, 1.36, -0.59, -3.49, -3.49, -1.2, -1.26, -2.51, -2.84, -3.16, -2.48, -3.16, -4.3, -4.87, -5.69, -6.39, -6.06, -4.74, -5.0, -2.79, -0.6, -0.6, -1.2, -1.35, -1.52, -11.88, -11.88, -11.99, -11.6, -11.08, -10.55, -10.4, -9.48, -8.68, -8.0, -7.71, -6.6, -3.32, -2.8, -3.72, -3.32, -4.24, -4.66, -4.02, -2.86, -4.28, -6.05, -4.6, -3.09, -3.22, -3.22, -3.79, -4.98, -4.82, -3.13, -1.6, 0.0, 0.0, -1.26, -3.97, -4.92, -5.32, -4.6, -3.63, -3.49, -5.26, -5.81, -4.57, -4.11, -3.35, -2.31, -0.77, 0.0, 0.0, 0.0, 0.0, 0.61, 1.33, 1.84, 1.33, 1.49, 1.27, 1.27, 0.7, 0.74, 1.35, 1.88, 2.86, 2.53, 2.84, 2.79, 2.88, 1.41, 0.66, 0.0, 0.0, 0.0, 0.0, 0.0, 0.0, 0.0, -1.27, -1.2, 0.0, -1.24, -4.0, -5.34, -5.86, -6.0, -7.45, -8.94, -9.36, -7.76, -6.64, -5.69, -6.59, -4.8, -1.24, -0.0, -1.7, -2.53, -2.88, -2.72, -11.88, -11.88, -11.99, -11.6, -11.47, -11.08, -10.55, -9.88, -9.2, -8.91, -8.22, -7.09, -3.32, -2.5, -3.16, -2.21, -3.14, -5.05, -3.72, -1.7, -0.6, -2.23, -4.56, -5.3, -4.75, -4.98, -6.36, -7.74, -6.8, -4.6, -3.04, -2.24, -1.86, -2.21, -3.6, -4.88, -4.92, -3.39, -2.15, -2.53, -4.57, -7.98, -10.23, -9.33, -7.37, -5.24, -2.98, -1.36, 0.0, 0.0, 0.0, 0.0, 1.16, 1.33, 1.49, 1.41, 1.41, 1.41, 0.72, 0.72, 0.81, 1.2, 1.24, 1.24, 1.58, 1.88, 1.41, 0.0, -0.66, -1.41, -1.41, -1.41, -2.26, -2.9, -2.31, -1.23, 0.0, 1.27, 0.57, 0.0, -3.16, -7.12, -7.48, -8.46, -9.39, -10.26, -9.36, -8.01, -6.07, -5.6, -5.02, -2.79, -0.63, -1.33, -2.68, -3.16, -3.9, -3.55, -11.88, -11.88, -11.99, -11.6, -11.6, -11.08, -10.55, -10.4, -9.48, -9.2, -8.51, -8.0, -6.36, -6.07, -4.4, -2.84, -3.84, -4.46, -3.48, -1.4, 0.6, -0.0, -2.07, -3.72, -4.12, -4.15, -4.98, -6.32, -6.01, -4.89, -5.73, -6.26, -5.73, -4.98, -4.0, -4.24, -4.02, -2.68, -0.6, -1.9, -4.57, -7.74, -6.61, -3.58, -3.13, -3.97, -3.74, -2.68, -1.47, -0.63, -1.14, 0.0, 0.61, 1.33, 1.41, 1.55, 1.47, 1.41, 0.78, 0.72, 0.7, 0.65, 0.6, 0.95, 1.2, 0.54, 0.0, 0.0, -0.59, -1.33, -1.27, -1.98, -2.9, -3.44, -2.82, -1.23, 0.0, 0.63, 0.0, 0.0, 0.0, -4.92, -5.36, -6.71, -7.57, -7.48, -6.67, -4.92, -4.02, -3.13, -2.23, -1.19, -1.94, -2.79, -3.09, -3.78, -4.65, -3.9, -11.75, -11.75, -11.99, -11.99, -11.6, -11.08, -11.08, -10.55, -10.4, -9.71, -9.2, -9.01, -8.72, -9.54, -8.33, -7.21, -6.94, -6.94, -6.36, -3.2, -1.79, -0.89, -1.58, -2.84, -3.48, -4.98, -4.6, -5.06, -5.69, -5.94, -7.15, -7.6, -6.71, -3.95, -3.95, -3.74, -3.74, -2.12, 0.0, 0.0, -3.39, -3.98, -1.34, -0.0, -0.0, -2.68, -3.97, -3.6, -2.79, -1.41, 0.0, 0.59, 0.59, 1.27, 0.73, 1.35, 0.76, 0.78, 0.0, 0.0, 0.0, 0.7, 1.13, 1.26, 1.26, 0.65, 0.57, 0.64, 0.0, -1.16, -1.84, -2.72, -2.69, -2.75, -1.32, -0.7, -0.66, -1.35, -1.36, -0.63, 0.0, -0.57, -3.53, -3.53, -3.07, -2.53, -2.23, -1.88, -1.2, -0.0, -0.51, -1.76, -3.16, -4.0, -4.02, -3.78, -4.36, -4.36, -11.75, -11.75, -11.99, -11.99, -11.6, -11.6, -11.08, -10.68, -10.4, -10.0, -9.71, -9.48, -9.35, -9.2, -8.56, -9.26, -9.97, -10.04, -9.23, -8.03, -4.02, -2.6, -1.7, -1.9, -3.58, -5.24, -5.59, -4.89, -5.37, -6.17, -6.71, -5.77, -4.47, -4.02, -4.02, -4.38, -3.74, -1.26, 0.0, 0.0, -1.34, -1.86, 0.6, 1.6, 0.95, -0.6, -2.24, -2.63, -2.4, -1.24, 0.0, 0.61, 1.13, 0.66, 0.66, 0.66, 0.0, 0.0, 0.0, 0.0, 0.0, 1.13, 2.21, 1.86, 1.86, 1.4, 2.0, 2.04, 0.66, -0.59, -2.0, -3.47, -2.75, -2.12, -1.26, -0.69, -1.88, -2.73, -3.55, -3.8, -2.54, -1.36, -1.13, -2.15, -1.0, 0.0, 0.0, 0.0, 0.0, 0.0, -0.63, -2.5, -3.6, -4.3, -3.98, -4.27, -4.73, -4.73, -11.75, -11.75, -11.99, -11.99, -11.6, -11.6, -11.47, -11.08, -10.68, -10.4, -10.4, -10.4, -9.63, -8.84, -8.27, -8.51, -8.96, -9.68, -9.77, -8.05, -3.99, -1.86, -0.4, -0.0, -0.0, -1.74, -2.53, -2.53, -2.8, -3.97, -4.47, -3.98, -2.68, -2.6, -2.68, -3.09, -2.63, -0.89, -0.8, -0.54, -0.0, -0.0, -0.0, 0.89, 0.95, 0.57, -0.0, -0.63, -0.45, 0.0, 0.0, 0.0, 0.54, 0.65, 0.54, 0.53, 0.59, 0.0, -0.59, -0.59, 0.53, 2.5, 2.4, 1.34, 1.2, 1.88, 2.79, 2.66, 0.63, -0.66, -1.94, -2.72, -1.98, -0.7, -0.76, -1.55, -2.2, -3.22, -4.87, -5.78, -4.71, -2.29, -1.23, -1.2, -0.53, -0.59, -0.67, -0.69, 0.0, 0.0, -0.59, -1.9, -2.24, -3.13, -3.87, -4.09, -4.09, -4.27, -11.75, -11.75, -11.75, -11.99, -11.99, -11.36, -11.36, -11.22, -11.08, -10.68, -10.55, -10.55, -10.3, -9.5, -8.73, -7.51, -7.07, -7.51, -7.97, -7.15, -3.53, -0.95, -0.0, 0.57, 0.54, -0.0, 0.57, 1.26, 0.4, -1.49, -2.91, -1.86, -0.71, -0.57, -0.6, -0.6, -0.0, -0.0, -0.59, -0.66, -0.66, -1.16, -1.26, 0.0, 0.89, 0.95, -0.0, -0.95, -1.34, -1.34, -1.79, -1.34, -0.45, 0.0, 0.0, 0.0, 0.0, 0.71, 0.0, 0.0, 1.79, 2.68, 2.24, 0.63, 0.0, 0.4, 1.61, 1.88, 1.24, 0.0, -0.65, -1.13, -0.66, -0.63, -0.78, -2.31, -2.4, -4.03, -5.13, -5.13, -4.02, -2.79, -3.55, -3.9, -1.33, -1.27, -2.04, -1.84, -0.61, 0.0, -0.72, -0.66, -1.0, -1.88, -3.14, -2.84, -2.53, -2.91, -11.75, -11.75, -11.75, -11.75, -11.75, -11.75, -11.36, -11.36, -11.22, -10.83, -10.83, -10.68, -10.68, -10.41, -9.37, -8.19, -6.92, -6.15, -6.1, -5.57, -3.13, -0.95, -0.0, -0.0, -0.0, 0.65, 1.61, 2.84, 2.58, 0.57, -0.55, -0.0, -0.0, -0.0, -0.0, -0.0, -0.0, -0.0, -0.0, -0.57, -1.27, -1.84, -1.49, -0.0, 0.0, 0.0, -0.45, -1.34, -1.79, -2.68, -3.13, -2.68, -1.79, -0.89, -0.45, -0.89, 0.0, 0.0, 0.0, 0.89, 1.26, 2.12, 1.6, -0.0, -1.86, -1.7, -0.45, 0.63, 1.86, 2.4, 2.12, 1.34, 0.57, 0.0, -1.23, -2.18, -2.9, -3.79, -4.56, -3.11, -2.41, -4.11, -4.94, -5.21, -3.15, -2.73, -2.88, -1.23, -0.57, 0.0, 0.0, -0.63, -1.41, -1.33, -1.8, -1.13, -0.54, -1.2, -11.75, -11.75, -11.75, -11.75, -11.75, -11.75, -11.75, -11.36, -11.36, -11.22, -11.22, -10.96, -10.41, -10.15, -9.94, -9.02, -7.59, -6.32, -5.65, -4.94, -3.35, -1.79, -1.26, -0.54, -0.0, -0.0, 0.51, 1.11, 1.57, 1.08, -0.0, -0.55, -0.0, -0.0, -0.0, -0.0, -0.0, 0.65, 1.08, 0.59, -0.0, -0.0, -0.0, -0.0, 1.34, 0.89, 0.0, 0.0, -0.89, -1.79, -2.68, -2.24, -0.89, 0.0, 0.0, 0.0, 0.0, -0.63, 0.0, 0.63, 0.63, -0.0, -0.0, -0.95, -2.4, -3.04, -2.54, -0.0, 2.12, 3.74, 4.11, 3.82, 2.68, 0.6, -0.61, -1.27, -1.23, -1.41, -1.49, -1.16, -1.2, -1.88, -2.88, -2.54, -1.8, -4.12, -2.79, -1.27, 0.0, 0.0, 0.0, -0.69, -1.88, -1.27, -0.66, 0.0, -0.8, -0.8, -11.75, -11.75, -11.75, -11.75, -11.75, -11.75, -11.75, -11.75, -11.75, -11.36, -10.96, -10.96, -10.7, -10.51, -9.94, -9.59, -8.45, -7.55, -6.92, -5.69, -4.45, -3.43, -2.17, -1.2, -0.0, -0.0, -0.0, -0.0, 0.59, 0.57, -0.0, -0.0, -0.59, -0.0, -0.0, 0.54, 1.16, 1.84, 2.0, 1.83, 0.61, 0.54, -0.0, 1.26, 1.26, 1.79, 1.26, 0.95, 0.0, 0.0, -0.45, -0.45, 0.0, 0.0, 0.0, 0.0, 0.0, -0.89, 0.0, 0.95, 0.45, 0.0, 0.0, 0.0, -0.89, -2.68, -2.24, 0.0, 2.24, 4.15, 3.72, 3.07, 2.24, 0.95, 0.0, 0.0, 0.0, 0.0, 0.0, 0.0, 0.0, 0.0, 0.0, -0.76, -0.7, -0.61, -1.88, -0.53, 0.0, 0.0, 0.0, -1.88, -1.33, -0.57, -0.72, -1.13, -1.61, -1.61, -11.75, -11.75, -11.75, -11.75, -11.75, -11.75, -11.75, -11.5, -11.5, -11.5, -11.5, -11.34, -11.07, -10.51, -10.23, -9.94, -9.37, -8.45, -7.59, -6.95, -5.71, -4.47, -2.86, -1.61, 0.0, 0.0, -0.6, -0.45, -0.0, -0.0, -0.0, -0.0, -0.61, -0.0, 0.8, 1.61, 1.8, 1.49, 1.6, 0.98, -0.0, -0.0, -0.0, -0.0, -0.0, 1.26, 1.26, -0.0, 1.26, 1.26, 1.26, 0.95, -0.0, -0.0, 0.0, 0.0, 0.0, 0.0, 1.26, 1.26, 1.34, 1.34, 1.79, 2.24, 1.79, 0.0, 0.0, 0.0, 1.6, 2.53, 1.49, -0.0, 0.0, -0.45, -0.63, -0.0, 1.24, 1.58, 1.58, 0.95, 0.63, 0.0, 0.0, -0.55, -0.72, -0.7, 0.0, 0.0, 0.0, -1.3, -2.12, -1.35, -1.84, -2.0, -2.2, -1.8, -2.21, -2.21, -11.75, -11.75, -11.75, -11.75, -11.75, -11.75, -11.75, -11.5, -11.5, -11.5, -11.5, -11.07, -11.07, -10.8, -10.23, -9.66, -9.08, -9.08, -8.19, -6.97, -5.72, -5.1, -4.1, -1.7, 0.0, 0.0, -0.57, -1.16, -1.26, -1.34, -0.6, -0.71, -0.54, -0.0, 1.24, 1.61, 1.27, -0.0, -0.0, -0.0, -0.0, -0.0, -0.0, -0.0, -0.0, -0.0, -0.0, -0.0, -0.0, 1.26, 1.58, 1.58, 1.26, -0.0, 0.0, 0.0, 0.0, 1.26, 1.58, 1.26, 1.34, 1.34, 1.58, 3.2, 4.09, 1.86, 0.89, -0.45, -0.0, -0.0, -1.49, -2.4, -2.12, -1.86, -0.53, -0.0, -0.0, 0.54, 0.57, -0.0, -0.45, -1.24, -1.13, -1.88, -2.0, -2.07, -2.48, 0.0, -2.2, -3.0, -2.26, -0.7, -1.8, -3.43, -3.32, -2.0, -2.53, -2.53, -11.75, -11.75, -11.75, -11.75, -11.75, -11.75, -11.5, -11.88, -11.88, -11.62, -11.24, -11.44, -11.16, -10.8, -10.51, -9.3, -9.37, -9.37, -7.86, -6.35, -5.72, -5.32, -5.1, -2.3, -1.33, -0.87, -1.7, -1.16, -1.61, -2.5, -1.79, -1.2, -0.6, -0.0, 0.57, 1.84, 1.73, -0.0, -0.66, -0.76, -0.61, -0.65, -0.71, -0.0, -0.0, -0.0, -0.0, 0.0, -0.0, -0.0, 1.26, 1.26, 1.58, 1.58, 1.79, 1.79, 0.0, 0.0, 0.0, 0.0, 0.0, 1.34, 2.4, 1.9, 2.86, 1.9, 0.63, -0.63, -1.2, -1.34, -2.12, -2.17, -1.58, -1.7, -0.95, -0.0, -0.65, -1.16, -1.2, -1.26, -2.91, -3.14, -3.79, -4.74, -5.06, -6.35, -7.02, -6.32, -5.49, -5.38, -3.15, -2.11, -2.8, -4.43, -4.11, -2.79, -3.14, -3.14, -11.75, -11.75, -11.75, -11.75, -11.75, -11.5, -11.5, -11.88, -11.88, -11.62, -11.62, -11.44, -11.16, -11.16, -10.8, -9.94, -9.37, -9.3, -8.06, -6.06, -5.49, -6.34, -6.35, -5.06, -4.46, -3.16, -2.84, -4.07, -3.43, -3.6, -2.91, -2.24, -1.79, -0.63, -0.0, 1.24, 1.33, -0.0, -0.55, -0.55, -0.57, -0.0, -0.0, -0.0, -0.0, -0.0, -0.0, -0.0, 0.0, 0.0, 0.95, 1.26, 1.58, 2.0, 1.34, 1.34, 1.58, 0.0, 0.0, 0.0, 0.0, 1.58, 2.21, 3.72, 1.9, 1.9, 0.8, 0.0, 0.0, 0.61, 0.66, 0.0, 0.0, -0.78, -1.55, -1.88, -1.7, -2.15, -2.5, -2.68, -3.53, -4.0, -4.37, -5.69, -5.05, -3.72, -2.53, -1.2, -4.07, -2.84, -3.72, -4.74, -5.3, -5.72, -5.86, -6.07, -4.73, -4.73, -11.75, -11.75, -11.5, -11.5, -11.5, -11.5, -11.5, -11.5, -11.62, -11.62, -11.62, -11.16, -11.16, -11.16, -11.16, -10.23, -9.66, -9.86, -9.48, -8.3, -7.64, -8.19, -7.86, -7.51, -7.15, -6.41, -5.21, -3.88, -3.6, -3.39, -3.07, -2.63, -2.24, -1.34, -0.89, -0.0, -0.0, -0.0, -0.0, -0.0, -0.0, -0.0, -0.0, -0.0, -0.0, -0.0, -0.0, -0.0, -0.0, 0.0, 1.34, 1.26, 1.58, 2.0, 2.24, 1.34, 1.7, 1.6, 0.0, 0.0, 1.26, 2.21, 2.53, 1.13, 0.71, 0.71, 0.57, 0.63, 1.86, 3.49, 4.56, 4.4, 2.34, 0.0, -3.8, -6.06, -2.91, -2.4, -2.53, -2.91, -3.13, -3.6, -3.43, -2.84, -1.58, 0.0, 0.63, 1.86, 0.59, -0.59, -3.48, -6.7, -6.01, -5.31, -5.94, -6.13, -5.6, -5.6, -11.75, -11.5, -11.5, -11.5, -11.5, -11.5, -11.5, -11.5, -11.62, -11.62, -11.35, -11.16, -11.16, -10.88, -10.88, -10.59, -10.01, -9.94, -9.94, -9.94, -9.02, -8.73, -8.08, -7.73, -6.87, -5.93, -4.29, -3.2, -2.63, -2.68, -2.68, -2.6, -2.24, -1.34, -0.89, 0.0, -0.0, -0.0, -0.0, -0.0, -0.0, -0.0, -0.0, -0.0, 0.57, 0.54, -0.0, -0.0, -0.0, 0.0, 0.89, 1.34, 1.26, 2.24, 2.24, 2.24, 2.24, 2.24, 0.45, 0.0, 0.6, 1.24, 1.24, 0.57, 0.57, 1.26, 1.26, 0.6, 1.7, 2.6, 2.86, 2.41, 2.53, 1.2, -5.43, -7.73, -5.58, -3.07, -1.7, -1.9, -2.63, -3.53, -3.07, -1.49, 0.0, 1.2, 0.63, 0.0, -1.76, -1.32, -4.28, -6.95, -6.01, -2.84, -2.4, -3.39, -4.24, -4.24, -11.75, -11.75, -11.5, -11.5, -11.34, -11.34, -11.5, -11.5, -11.62, -11.62, -11.35, -11.23, -11.23, -10.88, -10.88, -10.65, -10.3, -9.72, -10.01, -9.72, -9.08, -8.15, -7.51, -7.44, -6.87, -5.65, -4.37, -3.14, -2.4, -2.24, -2.24, -2.24, -1.79, -1.34, -0.89, -0.89, 0.0, 0.0, -0.0, -0.0, -0.0, -0.0, -0.0, 0.6, 0.6, 0.8, 0.63, -0.0, -0.0, 0.0, 0.0, 0.89, 1.34, 1.79, 2.24, 2.4, 2.17, 2.24, 1.34, 0.0, 0.63, 0.95, 1.2, 1.2, 1.86, 2.0, 1.7, 0.63, 0.63, 0.45, 0.0, 0.6, 1.79, 0.63, -3.13, -6.11, -7.2, -4.41, -1.88, -0.89, -1.49, -3.07, -3.13, -2.24, -1.7, -1.26, -2.23, -3.14, -5.37, -6.79, -6.11, -6.92, -3.79, 0.0, 0.0, -1.49, -3.07, -3.07, -11.75, -11.75, -11.5, -11.5, -11.34, -11.34, -11.34, -11.07, -11.62, -11.62, -11.72, -11.23, -11.23, -11.23, -10.88, -10.88, -10.65, -10.3, -10.06, -9.72, -8.53, -7.59, -6.64, -6.28, -6.57, -5.98, -5.01, -4.07, -2.79, -2.0, -2.24, -1.79, -1.79, -1.34, -0.89, -0.89, -0.89, 0.0, 0.0, -0.0, -0.0, -0.0, -0.0, 0.63, 0.95, 1.2, 0.89, 0.45, 0.0, 0.0, 0.45, 0.89, 0.89, 1.79, 1.58, 2.4, 1.49, 1.49, 1.34, 0.95, 0.0, 0.0, 0.0, 1.2, 2.17, 2.6, 2.24, 2.68, 0.89, 0.0, 0.0, -0.0, 0.0, 0.63, 0.0, -3.39, -6.0, -5.59, -3.22, -1.24, -0.89, -2.49, -3.7, -4.43, -4.47, -4.47, -4.73, -6.94, -8.24, -6.68, -6.14, -3.16, -1.26, 0.63, 0.0, -1.2, -2.21, -2.21, -11.75, -11.75, -11.75, -11.34, -11.34, -11.34, -11.34, -11.07, -11.44, -11.62, -11.72, -11.23, -11.23, -11.23, -10.88, -10.88, -10.65, -10.65, -10.06, -9.46, -8.85, -8.22, -6.97, -6.32, -5.69, -5.65, -5.06, -4.43, -3.48, -2.79, -2.4, -2.12, -1.79, -1.34, -1.34, -0.89, -0.89, -0.45, 0.0, 0.0, 0.0, 0.0, 0.0, 0.45, 0.89, 1.34, 1.34, 0.95, 0.95, 1.2, 1.2, 0.89, 0.89, 0.89, 1.26, 1.58, 1.58, 1.26, 0.63, 0.0, 0.0, 0.0, -0.45, 0.89, 2.17, 2.17, 2.68, 2.68, 2.24, 0.45, -0.95, -1.7, -0.95, 0.0, 0.6, 0.0, -1.61, -2.84, -4.11, -1.88, -1.24, -1.79, -3.39, -4.77, -5.36, -6.26, -7.56, -7.71, -5.86, -3.88, -1.9, -0.54, 0.0, 0.0, -0.53, -1.13, -1.16, -1.16, -11.36, -11.36, -11.75, -11.34, -11.34, -11.34, -11.34, -11.07, -11.07, -11.16, -11.16, -11.23, -11.23, -10.94, -10.69, -10.65, -10.65, -10.3, -9.77, -9.17, -8.56, -8.24, -7.3, -6.35, -5.71, -5.69, -5.37, -4.75, -4.12, -3.2, -2.84, -2.21, -1.9, -1.49, -1.6, -1.2, -0.95, -0.63, -0.89, 0.0, 0.0, 0.0, 0.0, 0.63, 0.95, 0.6, 0.8, 1.26, 0.99, 0.99, 1.26, 1.26, 0.63, 0.89, 0.89, 1.58, 1.58, 1.26, -0.0, 0.0, 0.0, 0.0, 0.0, 1.2, 1.79, 2.24, 2.68, 2.68, 1.2, 0.0, -0.95, -2.23, -1.61, -0.65, 0.65, 1.58, 0.0, -1.88, -2.51, -2.53, -2.5, -1.86, -2.24, -3.87, -4.88, -4.92, -5.32, -4.3, -2.6, -2.68, -2.68, 0.0, -0.51, -1.11, -1.11, -1.27, -1.13, -1.13, -11.36, -11.36, -11.22, -10.96, -10.96, -10.96, -11.34, -11.07, -11.07, -11.16, -11.16, -11.23, -11.23, -10.94, -10.69, -10.36, -10.3, -10.06, -9.77, -9.17, -8.56, -8.24, -7.61, -6.98, -6.06, -5.71, -5.1, -4.75, -4.45, -3.84, -3.22, -2.82, -2.4, -2.22, -1.8, -1.33, -1.16, -0.53, -0.65, 0.0, 0.0, 0.0, 0.53, 0.57, 0.71, 0.54, 0.54, 0.65, 0.65, 0.65, 1.2, 1.24, 1.24, 1.26, 0.89, 0.63, -0.0, -0.0, -0.0, -0.0, 0.0, 0.0, 0.76, 1.2, 2.24, 1.34, 1.79, 1.34, 0.0, -0.89, -1.7, -2.5, -2.79, -1.88, 1.26, 3.07, 2.17, 0.0, -1.88, -2.53, -3.07, -2.4, -0.89, -1.26, -3.39, -4.47, -4.43, -1.79, -0.0, -1.86, -3.54, -3.87, -2.0, -2.73, -2.44, -1.76, -1.8, -1.8, -11.22, -11.22, -11.22, -10.96, -10.96, -10.96, -10.96, -11.07, -11.07, -11.16, -11.16, -10.88, -11.23, -10.69, -10.36, -10.09, -10.06, -10.06, -9.17, -9.17, -8.56, -7.95, -7.61, -6.98, -6.35, -5.72, -5.1, -4.45, -4.05, -4.08, -3.42, -3.0, -2.8, -2.18, -1.73, -1.08, -1.23, -0.57, -0.57, 0.0, 0.0, 0.0, 0.66, 1.11, 1.11, 1.23, 0.57, 0.51, 0.61, 0.61, 0.53, 0.65, 1.0, 1.24, 0.8, 0.0, -0.0, -0.0, -0.0, -0.0, 0.0, 0.0, 0.53, 1.0, 1.2, 2.24, 1.79, 0.45, -0.45, -1.34, -1.7, -2.5, -3.14, -2.91, -0.0, 1.84, 1.58, 1.34, 0.0, -1.58, -2.4, -2.91, -0.89, 0.0, -0.45, -2.24, -3.53, -1.61, -1.58, -2.91, -4.43, -4.92, -3.78, -3.79, -3.43, -3.15, -2.48, -2.48, -11.22, -11.22, -11.22, -10.96, -10.96, -10.96, -10.96, -11.07, -11.07, -11.07, -11.16, -10.88, -10.88, -10.36, -10.36, -9.77, -9.77, -9.17, -9.17, -8.87, -8.56, -7.95, -7.61, -7.26, -6.34, -5.95, -5.06, -4.66, -4.24, -3.37, -3.4, -2.75, -2.29, -2.14, -1.8, -1.14, -1.16, -0.59, -0.54, 0.0, 0.0, 0.0, 0.63, 0.53, 0.61, 1.7, 1.07, 0.0, 0.0, 0.0, 0.0, 0.0, 0.54, 0.54, 0.71, 0.0, 0.0, -0.0, -0.0, -0.0, 0.0, 0.0, 0.0, 0.0, 1.34, 2.24, 1.79, 0.89, -0.0, -1.2, -1.79, -1.88, -2.11, -3.49, -3.13, -0.61, -0.0, -0.0, 0.89, 0.0, -1.2, -2.0, -0.95, 0.63, 0.89, 0.0, -1.86, -3.07, -3.82, -4.47, -4.92, -4.92, -4.77, -4.37, -4.12, -3.48, -3.15, -3.15, -10.83, -10.83, -10.83, -10.96, -10.96, -10.96, -10.7, -10.51, -10.87, -10.59, -10.59, -10.65, -10.65, -10.65, -9.77, -9.77, -9.48, -9.17, -8.87, -8.56, -8.24, -7.95, -7.33, -6.97, -6.33, -5.69, -5.29, -4.63, -3.97, -3.32, -3.35, -2.89, -2.23, -2.4, -1.73, -1.2, -1.12, -0.57, -0.58, 0.0, 0.0, 0.0, 0.0, 0.0, 0.55, 0.61, 0.7, 0.0, 0.0, 0.0, 0.0, 0.0, 0.0, 0.0, 0.0, 0.0, 0.0, -0.0, -0.0, -0.0, -0.0, 0.0, -0.45, -0.0, 1.49, 1.7, 1.34, 1.34, 0.45, -1.34, -3.13, -3.07, -1.35, -2.31, -4.22, -2.79, -2.12, -0.54, -0.0, 0.45, 0.0, -1.7, -1.6, 0.0, 0.63, 0.89, -0.0, -1.49, -3.09, -4.47, -4.92, -4.47, -4.02, -4.52, -4.27, -4.37, -3.79, -3.79, -10.68, -10.68, -10.68, -10.41, -10.41, -10.79, -10.51, -10.51, -10.51, -10.23, -10.59, -10.59, -10.3, -10.06, -9.72, -9.17, -9.17, -8.87, -8.56, -8.24, -7.95, -7.33, -6.97, -6.71, -6.33, -5.69, -5.04, -4.84, -4.16, -3.45, -3.49, -2.83, -2.86, -2.21, -1.81, -1.71, -1.18, -1.1, -0.61, -0.57, 0.0, 0.0, 0.0, 0.0, 0.0, 0.0, 0.0, 0.0, 0.0, 0.0, 0.0, 0.0, 0.0, 0.0, 0.0, 0.0, 0.0, 0.0, 0.0, -0.0, -0.6, -1.2, -1.26, 0.71, 1.24, 1.26, 0.63, 0.0, 0.0, -1.9, -3.39, -3.97, -2.53, -0.72, -1.5, -3.69, -2.73, -0.63, -0.0, 0.0, 0.0, -0.63, -0.63, 0.0, 0.0, 0.0, 0.89, 0.63, -0.0, -1.79, -3.13, -3.58, -3.58, -3.87, -4.6, -4.8, -4.37, -4.37, -10.3, -10.3, -10.68, -10.41, -10.41, -10.41, -10.15, -10.51, -10.51, -10.23, -10.01, -10.01, -10.01, -9.72, -9.46, -9.46, -9.17, -8.87, -8.24, -7.61, -7.61, -6.97, -6.97, -6.33, -6.08, -5.69, -5.04, -4.63, -3.8, -3.49, -3.3, -2.97, -2.83, -2.19, -1.78, -1.69, -1.16, -1.16, -1.18, -0.56, -0.57, -0.57, 0.0, 0.0, 0.0, 0.0, 0.0, 0.0, 0.0, 0.0, 0.0, 0.0, 0.0, 0.0, 0.0, 0.0, 0.0, 0.0, 0.0, -0.0, -1.2, -1.9, -0.0, 1.58, 1.9, 1.58, 0.45, -0.89, -1.86, -2.15, -2.79, -3.53, -3.04, -1.33, -0.74, -2.17, -2.88, -0.57, 0.0, 0.0, 0.0, 0.0, 0.0, 0.0, 0.0, -0.53, 0.0, 1.49, 1.58, 1.26, -0.0, -1.34, -2.24, -3.09, -4.11, -4.52, -4.27, -4.27, -10.3, -10.3, -10.3, -10.04, -10.23, -10.23, -9.94, -9.94, -9.94, -9.66, -10.01, -10.01, -9.42, -9.42, -9.13, -9.13, -8.85, -8.24, -7.61, -7.61, -7.24, -6.97, -6.58, -6.33, -5.69, -5.26, -5.04, -4.6, -4.16, -3.15, -3.52, -2.83, -2.83, -2.3, -2.19, -1.78, -1.69, -1.16, -1.16, -1.18, -0.56, -0.57, -0.57, 0.0, 0.0, 0.0, 0.0, 0.0, 0.0, 0.0, 0.0, 0.0, 0.0, 0.0, 0.0, 0.0, 0.0, 0.0, 0.0, -0.65, -1.76, -0.6, 1.26, 1.58, 1.9, 1.86, 1.2, 0.0, -1.26, -1.4, -1.2, -0.95, -2.6, -3.45, -2.0, -1.11, -1.24, 0.0, 1.24, 1.13, 0.61, 0.0, 0.0, 0.0, -0.58, -0.54, -0.51, 0.0, 1.26, 1.9, 1.49, 0.63, -0.89, -2.24, -3.09, -3.6, -3.6, -3.6, -9.76, -9.76, -10.13, -9.86, -9.86, -9.86, -9.59, -9.94, -9.94, -9.42, -9.42, -9.42, -9.42, -9.42, -8.53, -8.53, -7.93, -7.93, -7.61, -7.33, -6.97, -6.31, -6.31, -5.92, -5.69, -5.26, -5.04, -4.6, -4.6, -3.94, -3.49, -2.83, -2.83, -2.3, -2.19, -1.78, -1.69, -1.14, -1.16, -1.09, -1.18, -0.56, -0.57, -0.57, 0.0, 0.0, 0.0, 0.0, 0.0, 0.0, 0.0, 0.0, 0.0, 0.0, 0.0, 0.0, 0.0, 0.0, 0.0, -0.6, -1.0, -0.0, 1.26, 2.21, 1.24, 0.99, 0.6, 0.0, 0.0, -0.95, 0.0, 0.0, -1.58, -5.09, -4.74, -2.51, 0.0, 2.5, 3.15, 3.26, 1.45, 0.0, 0.0, 0.0, -0.63, -1.14, -0.55, 0.0, 0.45, 1.26, 1.86, 1.6, 0.0, -1.34, -2.68, -3.39, -2.68, -2.68, -9.76, -9.76, -9.76, -9.5, -9.3, -9.37, -9.37, -9.37, -9.08, -9.08, -9.08, -8.82, -8.82, -8.82, -8.22, -7.93, -7.61, -7.61, -7.61, -6.97, -6.97, -6.58, -6.07, -5.67, -5.67, -5.26, -5.26, -4.8, -4.38, -4.12, -3.45, -2.8, -2.97, -2.3, -2.3, -1.67, -1.78, -1.69, -1.14, -1.16, -1.09, -0.59, -0.56, -0.61, -0.61, -0.61, -0.57, -0.57, -0.58, 0.0, 0.0, 0.0, 0.0, 0.0, 0.0, 0.0, 0.0, 0.0, 0.0, -0.54, -0.0, 0.8, 1.4, 1.2, 1.0, -0.0, -0.0, -0.0, -0.63, -0.89, -0.89, -0.89, -1.74, -4.71, -5.38, -2.12, 0.67, 4.71, 5.86, 4.0, 1.4, 0.0, 0.0, -0.57, 0.0, 0.0, 0.0, 0.0, 0.0, 0.63, 1.34, 1.2, 0.89, 0.0, -1.34, -2.63, -2.97, -2.97, -9.21, -9.21, -9.58, -9.3, -9.3, -9.02, -9.02, -9.37, -8.82, -8.82, -8.82, -8.82, -8.82, -8.22, -8.22, -7.61, -7.32, -6.98, -6.98, -6.98, -6.33, -6.33, -5.92, -5.92, -5.02, -5.02, -4.57, -4.57, -3.91, -3.91, -3.61, -3.45, -2.8, -2.28, -2.3, -2.3, -1.75, -1.67, -1.69, -1.14, -1.16, -1.09, -0.59, -0.56, -0.56, -0.56, -0.56, -0.61, -0.57, -0.58, -0.59, -0.59, -0.54, 0.0, 0.0, -0.55, -0.57, -0.57, -0.59, -0.51, 0.0, 1.4, 1.27, 0.54, -0.0, -0.0, -0.0, -0.0, -0.57, -1.2, -1.34, -1.34, -1.49, -0.71, -1.5, -0.73, 0.71, 2.9, 2.97, 1.4, 0.0, 0.0, 0.0, 0.0, 0.0, 0.51, 0.59, 1.13, 0.61, 0.54, 0.6, 0.45, 0.45, 0.0, -0.45, -1.2, -3.09, -3.09, -9.21, -9.21, -9.21, -8.94, -8.73, -8.78, -8.78, -8.78, -8.5, -8.5, -8.22, -8.22, -8.22, -7.6, -7.32, -7.32, -6.98, -6.98, -6.98, -6.34, -6.34, -6.34, -5.69, -5.69, -5.26, -5.26, -4.57, -4.57, -3.91, -3.91, -3.42, -3.45, -2.93, -2.8, -2.28, -2.28, -2.3, -1.75, -1.67, -1.69, -1.16, -1.16, -1.18, 0.0, -0.56, -0.59, -0.59, -1.1, -1.12, -0.58, -0.58, -0.59, -0.59, -0.54, -0.54, -0.61, -0.55, -0.63, -0.66, -0.59, -0.54, -0.0, 1.13, -0.0, -0.0, -0.0, 0.65, -0.0, -0.0, -0.8, -1.2, -0.63, 0.0, 0.0, 0.0, -0.78, -1.45, -2.18, -2.28, -2.06, -1.45, 0.0, 0.0, 0.0, 0.61, 1.13, 1.76, 1.76, 1.11, 0.59, 0.0, 0.0, 0.0, 0.0, -0.32, -1.2, -1.7, -2.6, -8.65, -8.65, -9.01, -8.73, -8.73, -8.73, -8.45, -8.78, -8.22, -8.22, -8.22, -7.6, -7.6, -7.32, -7.32, -6.98, -6.98, -6.7, -6.34, -6.34, -6.34, -5.95, -5.95, -5.26, -5.26, -5.04, -4.6, -4.6, -4.12, -4.12, -3.45, -3.45, -2.93, -2.8, -2.8, -2.28, -2.28, -2.3, -1.75, -1.78, -1.69, -1.71, -1.18, -0.7, -0.59, -0.58, -1.16, -1.73, -1.2, -1.23, -1.14, -1.14, -1.16, -1.16, -1.07, -0.61, -0.61, -1.08, -1.11, -0.57, -1.16, -0.63, -0.0, 0.54, 0.57, 1.2, 1.13, -0.0, -0.0, -0.57, -0.8, -0.6, -0.45, 0.0, 0.0, 0.0, -2.04, -6.24, -6.81, -5.7, -3.32, -1.11, 0.0, 0.59, 1.13, 1.8, 1.94, 1.94, 1.35, 1.23, 0.59, 0.0, -0.8, -1.26, -1.6, -1.7, -2.12, -1.7, -8.65, -8.65, -8.65, -8.38, -8.73, -8.73, -8.19, -8.19, -7.9, -7.9, -7.6, -7.6, -7.32, -6.98, -6.98, -6.7, -6.7, -6.34, -6.34, -6.34, -5.95, -5.7, -5.29, -5.04, -5.04, -4.6, -4.6, -4.6, -4.12, -3.94, -3.45, -3.45, -3.3, -2.8, -2.8, -2.28, -2.3, -2.3, -2.3, -1.67, -1.69, -1.81, -1.71, -1.1, -0.72, -1.14, -1.69, -1.73, -1.65, -1.8, -1.67, -1.26, -1.16, -1.16, -1.16, -1.16, -1.19, -1.08, -1.23, -1.11, -1.27, -1.2, 0.0, 0.95, 1.2, -0.0, -0.0, -0.0, -0.0, -0.0, -0.57, -0.95, -2.24, -2.21, 0.0, 1.55, 0.0, -2.66, -5.86, -5.59, -2.44, -0.59, 0.0, 1.35, 2.11, 1.88, 1.98, 1.41, 1.3, 0.67, 0.0, 0.0, -1.24, -2.12, -2.6, -2.6, -2.6, -2.12, -8.65, -8.65, -8.65, -8.38, -8.15, -8.15, -8.19, -8.19, -7.9, -7.6, -7.6, -6.98, -6.98, -6.7, -6.7, -6.7, -6.34, -6.34, -5.95, -5.95, -5.7, -5.7, -5.29, -5.04, -5.04, -4.6, -4.6, -3.94, -3.94, -3.94, -3.45, -3.3, -3.49, -2.97, -2.97, -2.83, -2.3, -2.3, -2.19, -1.78, -1.69, -1.69, -1.71, -1.84, -2.23, -1.55, -1.81, -1.73, -1.65, -1.67, -1.67, -1.84, -1.7, -1.7, -1.7, -1.7, -1.16, -1.19, -1.23, -1.23, -1.76, -1.84, 0.0, -0.0, -0.0, -0.0, -0.0, -0.0, -0.0, -0.0, -0.6, -1.7, -2.68, -2.8, -1.49, 0.76, 1.2, -0.54, -2.23, -2.53, -1.0, 0.51, 1.23, 2.82, 2.18, 1.32, 0.64, 0.69, 0.0, 0.0, 0.0, 0.0, -1.2, -2.17, -2.68, -3.13, -3.07, -3.07, -8.44, -8.44, -8.15, -8.15, -8.15, -8.15, -7.86, -7.86, -7.59, -7.3, -6.98, -6.98, -6.7, -6.7, -6.34, -6.34, -6.34, -6.34, -5.95, -5.7, -5.7, -5.29, -5.29, -5.04, -4.6, -4.6, -4.4, -3.94, -3.94, -3.94, -3.49, -3.49, -3.49, -2.97, -2.83, -2.83, -2.3, -2.19, -2.33, -2.33, -1.69, -1.69, -1.71, -2.23, -2.37, -2.33, -1.69, -1.73, -1.76, -1.8, -1.67, -1.84, -1.7, -1.7, -1.7, -1.7, -1.73, -1.73, -1.73, -1.76, -1.76, -1.8, -1.26, 0.0, -0.0, -0.0, -0.0, -0.0, -0.0, -0.0, -0.8, -1.7, -2.68, -3.51, -3.04, -1.6, 0.0, 0.0, 0.0, 0.0, 1.2, 2.44, 3.51, 2.89, 2.01, 0.76, 0.0, 0.0, 0.0, 0.0, 0.0, -0.7, -1.13, -2.4, -3.13, -3.58, -3.58, -3.58, -8.08, -8.08, -8.15, -8.15, -8.15, -8.15, -7.86, -7.59, -7.59, -7.59, -7.3, -6.98, -6.7, -6.34, -6.34, -6.34, -6.34, -6.34, -5.95, -5.7, -5.29, -5.29, -5.29, -5.04, -4.6, -4.6, -4.4, -3.94, -4.16, -4.16, -3.49, -3.49, -3.49, -3.32, -2.83, -2.83, -3.01, -2.33, -2.33, -2.33, -2.21, -2.37, -2.37, -2.37, -2.37, -2.21, -1.69, -1.71, -1.73, -1.76, -2.32, -2.16, -2.18, -2.18, -2.4, -1.88, -1.88, -1.73, -1.73, -1.73, -1.94, -2.48, -1.9, 0.0, -0.0, 1.58, -0.0, -0.0, -0.0, -0.0, -0.6, -2.12, -3.13, -3.53, -3.82, -3.39, -1.24, 0.0, 0.57, 2.88, 6.14, 6.76, 5.68, 3.61, 1.47, 0.67, 0.0, 0.0, -0.67, -1.41, -0.67, -0.67, -1.41, -2.68, -3.13, -3.58, -3.58, -3.58, -8.08, -8.08, -7.81, -8.15, -8.15, -8.15, -7.55, -7.59, -7.59, -7.59, -7.59, -6.98, -6.98, -6.34, -6.34, -6.34, -6.34, -5.95, -5.7, -5.7, -5.29, -5.29, -5.29, -5.04, -4.6, -4.63, -4.63, -4.16, -4.16, -3.97, -3.49, -3.49, -3.49, -3.32, -2.83, -3.01, -2.86, -2.86, -2.33, -2.33, -2.21, -2.37, -2.37, -2.37, -2.37, -2.37, -2.37, -2.23, -2.23, -2.26, -2.29, -2.32, -2.36, -2.18, -2.4, -2.4, -2.4, -2.4, -2.2, -2.2, -2.2, -2.22, -2.21, -0.89, -0.0, 1.0, 1.4, 1.24, 0.71, -0.0, -0.95, -1.79, -3.13, -3.82, -4.0, -2.53, -0.61, 0.0, 2.18, 5.95, 9.4, 9.3, 7.03, 3.39, 1.36, 0.69, 0.0, -0.61, -1.47, -1.35, -2.09, -1.76, -2.21, -2.24, -2.5, -3.07, -3.07, -3.07, -8.08, -8.08, -8.08, -7.81, -7.81, -7.55, -7.55, -7.27, -7.27, -7.27, -6.97, -6.97, -6.69, -6.63, -6.34, -6.34, -5.95, -5.7, -5.7, -5.7, -5.29, -5.29, -5.29, -4.84, -4.84, -4.63, -4.63, -4.16, -4.16, -3.97, -3.97, -3.49, -3.49, -3.32, -3.32, -3.01, -2.86, -2.86, -2.86, -2.86, -2.71, -2.37, -2.37, -2.37, -2.23, -2.23, -2.23, -2.23, -2.4, -2.26, -2.44, -2.29, -2.32, -2.36, -2.18, -2.4, -2.4, -2.4, -2.4, -2.2, -2.2, -2.44, -2.23, -1.2, 0.6, 1.2, 1.6, 1.0, 0.54, -0.0, -1.2, -2.24, -2.68, -3.51, -2.68, -1.24, 0.0, 0.73, 2.12, 5.59, 8.27, 8.29, 6.0, 4.15, 2.69, 1.26, 0.0, -0.67, -1.94, -3.0, -2.16, -2.07, -2.15, -2.4, -1.88, -1.84, -1.84, -1.84, -8.08, -8.08, -8.08, -7.81, -7.55, -7.55, -7.55, -7.27, -7.27, -7.27, -6.97, -6.97, -6.69, -6.69, -6.35, -6.08, -5.7, -5.7, -5.7, -5.7, -5.29, -5.29, -5.29, -4.84, -4.84, -4.63, -4.63, -4.16, -4.16, -3.97, -3.97, -3.49, -3.49, -3.32, -3.32, -3.01, -2.86, -2.86, -2.86, -2.86, -2.86, -2.89, -2.89, -2.89, -2.73, -2.73, -2.73, -2.92, -2.92, -2.75, -2.96, -2.77, -3.0, -2.8, -2.36, -2.4, -2.4, -2.4, -2.4, -2.4, -2.2, -2.44, -2.84, -1.86, -0.0, 1.2, 2.53, 1.13, -0.0, -0.0, -0.95, -1.7, -2.24, -2.24, -1.7, 0.0, 0.0, 0.76, 2.79, 5.05, 6.07, 5.95, 6.1, 6.21, 5.04, 1.88, 0.0, -0.57, -1.27, -1.88, -1.88, -1.88, -1.9, -2.24, -2.17, -1.86, -1.86, -1.86, -8.08, -8.08, -8.08, -8.08, -7.85, -7.55, -7.55, -7.55, -7.27, -7.27, -6.97, -6.97, -6.97, -6.69, -6.35, -6.35, -6.35, -5.7, -5.7, -5.7, -5.7, -5.29, -5.29, -4.84, -4.63, -4.63, -4.63, -4.16, -4.16, -3.97, -3.97, -3.49, -3.49, -3.32, -3.52, -3.52, -3.35, -2.86, -2.86, -2.86, -2.86, -2.89, -2.89, -2.89, -2.73, -2.92, -2.92, -2.92, -2.75, -2.96, -2.96, -2.77, -2.77, -2.8, -2.82, -2.82, -2.84, -2.4, -2.4, -2.4, -2.4, -2.44, -2.86, -2.15, 0.0, 1.2, 1.6, 1.6, 1.27, 0.54, 1.24, -0.6, -1.2, -1.34, -0.89, 0.0, 0.0, 0.8, 2.5, 3.45, 3.49, 4.94, 7.44, 7.9, 5.69, 2.48, 1.13, 0.0, 0.0, -0.71, -1.24, -1.24, -1.26, -1.34, -1.7, -1.49, -1.49, -1.49, -8.0, -8.0, -8.0, -7.73, -7.51, -7.55, -7.55, -7.55, -7.27, -6.97, -6.97, -6.97, -6.97, -6.97, -6.35, -6.35, -6.35, -5.98, -5.7, -5.7, -5.29, -5.29, -5.06, -4.63, -4.63, -4.63, -4.63, -4.16, -4.16, -3.97, -3.97, -3.97, -3.49, -3.32, -3.52, -3.52, -3.52, -3.35, -3.35, -3.35, -3.05, -2.89, -2.89, -2.89, -2.73, -2.92, -2.92, -2.75, -2.75, -2.96, -2.96, -2.77, -2.77, -3.0, -3.04, -2.82, -3.08, -2.84, -2.84, -2.84, -2.84, -2.86, -2.86, -2.5, -0.95, -0.0, -0.0, 0.57, 1.24, 1.9, 2.23, 1.86, -0.0, -0.89, -0.89, -1.34, 0.0, 0.45, 2.24, 2.91, 2.79, 3.48, 6.7, 6.7, 3.79, 2.48, 1.61, 0.63, 0.0, 0.0, -0.57, -0.32, 0.0, -0.63, -1.26, -1.58, -1.58, -1.58, -8.0, -8.0, -7.8, -7.51, -7.51, -7.51, -7.23, -7.55, -7.55, -6.97, -6.97, -6.97, -6.97, -6.97, -6.64, -6.35, -6.35, -6.35, -5.98, -5.72, -5.06, -5.06, -5.06, -4.63, -4.63, -4.63, -4.63, -4.63, -4.16, -3.97, -3.97, -3.97, -3.97, -3.32, -3.52, -3.52, -3.52, -3.35, -3.35, -3.56, -3.56, -3.37, -2.89, -2.89, -2.92, -2.92, -2.92, -2.75, -2.96, -2.96, -2.77, -2.77, -3.0, -3.0, -3.04, -3.04, -2.82, -3.08, -2.84, -2.84, -2.84, -2.86, -3.15, -3.07, -1.2, -0.0, -0.0, -0.0, 0.95, 1.26, 1.86, 2.12, 1.7, -0.0, -0.95, -0.95, -0.0, -0.0, 1.2, 2.17, 2.8, 3.07, 3.6, 3.78, 2.73, 2.51, 2.91, 0.45, -0.89, -0.95, -0.6, 0.0, 1.26, -0.0, -0.71, -1.2, -1.2, -1.2, -8.0, -7.44, -7.44, -7.8, -7.51, -7.51, -7.51, -7.23, -7.23, -6.95, -7.27, -6.67, -6.67, -6.67, -6.35, -6.35, -6.35, -6.08, -5.72, -5.72, -5.72, -5.32, -5.06, -5.06, -4.63, -4.63, -4.63, -4.63, -4.42, -3.97, -3.97, -3.97, -3.97, -4.0, -3.52, -3.52, -3.52, -3.35, -3.35, -3.56, -3.56, -3.37, -3.37, -2.89, -2.92, -2.92, -2.92, -2.75, -2.96, -2.96, -2.77, -3.0, -3.45, -3.45, -3.22, -3.47, -3.47, -3.08, -3.08, -2.84, -2.84, -2.84, -2.86, -3.14, -1.79, -0.0, -0.0, -0.0, -0.0, -0.0, 0.6, 1.2, 1.2, 0.63, -0.57, -1.2, -0.65, -0.0, 0.6, 1.34, 2.12, 2.8, 2.91, 2.84, 1.8, 2.91, 3.13, 0.45, -1.79, -2.68, -1.7, 0.45, 1.86, -0.0, -0.65, -1.16, -1.16, -1.16, -7.44, -7.44, -7.44, -7.44, -7.8, -7.51, -7.51, -7.51, -7.23, -6.95, -6.95, -6.95, -6.67, -6.67, -6.35, -6.35, -6.35, -6.35, -5.72, -5.72, -5.72, -5.72, -5.32, -5.32, -4.63, -4.63, -4.63, -4.42, -4.42, -3.97, -3.97, -4.2, -4.2, -4.0, -4.0, -3.52, -3.52, -3.35, -3.35, -3.56, -3.37, -3.37, -3.37, -3.4, -2.92, -2.92, -2.92, -2.75, -2.96, -2.96, -2.77, -3.0, -3.45, -3.45, -3.45, -3.47, -3.47, -3.22, -3.08, -3.08, -2.84, -2.84, -2.86, -2.84, -1.86, -0.0, -0.0, -0.6, -0.95, -0.6, -0.6, -0.6, -0.63, 0.0, -0.57, -1.2, -0.65, -0.0, 0.8, 1.2, 1.34, 2.17, 2.91, 1.88, 2.0, 3.13, 3.53, 1.34, -1.34, -2.68, -2.17, -0.0, 1.6, -0.0, -0.53, -1.16, -1.16, -1.16, -7.72, -7.72, -7.44, -7.44, -7.44, -7.17, -7.51, -7.51, -7.51, -6.95, -6.95, -6.95, -6.95, -6.95, -6.35, -6.35, -6.35, -6.35, -6.0, -6.0, -5.72, -5.72, -5.08, -5.08, -4.66, -4.66, -4.66, -4.42, -4.42, -4.2, -4.2, -4.2, -4.0, -4.0, -4.0, -4.0, -3.52, -3.35, -3.35, -3.56, -3.37, -3.37, -3.37, -3.4, -3.4, -3.4, -3.4, -2.75, -2.96, -2.96, -3.21, -3.45, -3.45, -3.45, -3.45, -3.45, -3.47, -3.47, -3.22, -3.49, -2.84, -2.84, -2.86, -2.86, -2.15, 0.0, 0.6, -0.57, -1.26, -1.26, -1.86, -2.4, -2.4, -1.7, -1.7, -1.24, -1.24, -0.0, 0.6, 0.95, 1.2, 2.24, 3.09, 2.24, 1.79, 3.09, 3.39, 2.4, -0.0, -1.9, -1.2, -0.0, 0.6, -0.0, -0.61, -1.16, -1.16, -1.16, -7.72, -7.72, -7.72, -7.44, -7.44, -7.44, -7.17, -7.17, -7.25, -7.25, -6.95, -6.95, -6.95, -6.95, -6.65, -6.35, -6.35, -6.35, -6.0, -5.72, -5.72, -5.72, -5.08, -5.08, -5.08, -4.66, -4.66, -4.66, -4.66, -4.2, -4.2, -4.0, -4.0, -4.0, -4.0, -4.0, -3.8, -3.35, -3.56, -3.56, -3.37, -3.37, -3.37, -3.4, -3.4, -3.4, -3.4, -3.42, -3.42, -3.42, -3.42, -3.45, -3.45, -3.45, -3.45, -3.45, -3.72, -3.47, -3.47, -3.49, -3.49, -3.12, -2.86, -2.86, -2.68, -0.45, 0.8, -0.0, -0.57, -1.24, -1.9, -2.5, -2.5, -2.17, -1.7, -1.79, -1.86, -1.26, -0.6, -0.0, 0.63, 1.7, 3.58, 2.68, 1.79, 2.63, 3.07, 2.53, 0.59, -0.57, -0.59, -0.0, 0.57, -0.0, -0.53, -1.16, -1.16, -1.16, -7.35, -7.35, -7.35, -7.72, -7.44, -7.44, -7.44, -6.92, -6.92, -6.92, -6.92, -6.95, -6.95, -6.95, -6.34, -6.34, -6.34, -6.06, -5.72, -5.72, -5.72, -5.72, -5.34, -5.34, -5.34, -5.08, -4.66, -4.66, -4.66, -4.66, -4.2, -4.0, -4.0, -4.0, -4.0, -4.0, -3.8, -3.56, -3.56, -3.56, -3.37, -3.37, -3.37, -3.6, -3.4, -3.4, -3.4, -3.64, -3.42, -3.42, -3.42, -3.68, -3.45, -3.45, -3.72, -3.72, -3.72, -3.72, -3.47, -3.76, -3.49, -3.12, -2.86, -2.86, -2.79, -1.34, 0.6, -0.0, -0.59, -1.16, -1.16, -1.61, -1.88, -1.9, -1.26, -1.34, -1.34, -1.7, -1.49, -0.6, -0.0, 2.4, 3.07, 3.07, 2.0, 1.79, 2.5, 2.79, 1.11, -0.0, -0.63, -0.0, 0.54, -0.0, -0.0, -0.53, -0.53, -0.53, -7.35, -7.35, -7.35, -7.35, -7.44, -7.44, -7.44, -7.21, -6.92, -6.92, -6.92, -6.92, -6.64, -6.64, -6.34, -6.34, -6.34, -6.34, -5.72, -5.72, -5.72, -5.72, -5.34, -5.34, -5.34, -5.09, -4.69, -4.69, -4.44, -4.44, -4.44, -4.0, -4.0, -4.0, -4.0, -3.8, -4.03, -4.03, -3.56, -3.56, -3.37, -3.37, -3.37, -3.6, -3.4, -3.4, -3.4, -3.4, -3.42, -3.42, -3.42, -3.45, -3.45, -3.45, -3.72, -4.12, -4.12, -4.12, -3.47, -3.47, -3.49, -3.22, -2.86, -2.86, -2.84, -2.12, -0.0, -0.0, -0.55, -1.33, -1.33, -1.33, -1.88, -1.4, -1.24, -0.89, -0.89, -1.79, -1.7, -1.49, -0.0, 0.99, 1.49, 2.24, 2.4, 1.2, 1.49, 2.53, 1.8, -0.0, -0.0, -0.0, -0.0, -0.0, -0.57, -0.54, -0.54, -0.54, -7.61, -7.61, -7.35, -7.35, -7.35, -7.44, -7.44, -7.21, -7.21, -6.92, -6.92, -6.92, -6.92, -6.64, -6.34, -6.34, -6.34, -6.34, -6.01, -6.01, -5.72, -5.45, -5.09, -5.09, -5.09, -5.09, -5.09, -4.69, -4.69, -4.69, -4.69, -4.24, -4.0, -4.0, -3.8, -4.03, -4.03, -3.56, -3.56, -3.37, -3.37, -3.37, -3.6, -3.6, -3.4, -3.4, -3.4, -3.4, -3.42, -3.42, -3.42, -3.68, -3.45, -3.45, -3.72, -4.12, -4.12, -4.12, -3.84, -3.47, -3.76, -3.49, -3.49, -3.48, -3.43, -2.8, -0.95, -0.0, -1.23, -1.33, -1.84, -2.15, -2.15, -2.21, -2.5, -2.17, -1.79, -1.79, -1.79, -0.95, -0.0, -0.0, 0.6, 1.34, 1.49, 0.6, 0.45, 1.58, 1.88, 1.13, -0.0, -0.63, -1.13, -1.24, -1.24, -1.24, -1.24, -1.24, -7.61, -7.61, -7.61, -7.35, -7.35, -7.35, -7.09, -7.09, -7.21, -7.21, -6.92, -6.92, -6.64, -6.64, -6.64, -6.64, -6.04, -6.04, -5.72, -5.72, -5.72, -5.72, -5.36, -5.09, -5.09, -5.09, -5.09, -4.69, -4.69, -4.69, -4.69, -4.69, -4.03, -4.03, -4.03, -4.03, -3.56, -3.56, -3.56, -3.37, -3.37, -3.37, -3.6, -3.6, -3.4, -3.4, -3.4, -3.4, -3.42, -3.42, -3.42, -3.68, -3.45, -3.45, -3.85, -4.12, -4.12, -4.12, -3.84, -3.84, -4.12, -3.49, -3.49, -3.48, -3.78, -3.6, -1.79, -0.71, -1.33, -3.15, -3.78, -2.84, -2.53, -2.5, -2.91, -3.07, -2.6, -1.34, -0.45, -0.89, -0.63, -0.0, -0.0, 0.89, 1.2, 0.6, 0.0, 0.63, 1.24, 1.16, -0.0, -0.63, -1.8, -1.88, -1.9, -1.58, -1.58, -1.58, -7.61, -7.61, -7.61, -7.61, -7.35, -7.35, -7.15, -6.87, -6.87, -6.87, -6.87, -6.87, -6.32, -6.32, -6.32, -6.32, -6.32, -6.01, -5.72, -5.72, -5.72, -5.72, -5.36, -5.36, -5.09, -5.09, -5.09, -4.69, -4.45, -4.45, -4.45, -4.45, -4.03, -4.03, -4.03, -4.03, -4.03, -3.56, -3.37, -3.37, -3.37, -3.37, -3.6, -3.4, -3.4, -3.4, -3.4, -3.64, -3.42, -3.42, -3.42, -3.68, -3.68, -3.85, -3.85, -4.12, -4.12, -4.12, -3.84, -3.84, -4.12, -3.83, -4.11, -3.79, -3.73, -3.72, -2.6, -1.6, -1.2, -2.23, -3.49, -2.53, -2.21, -2.98, -2.5, -2.5, -1.9, -0.63, -0.45, -0.89, -0.8, -0.95, -0.0, 0.0, 0.63, 0.6, 0.0, 0.0, -0.0, -0.0, -0.0, -0.66, -1.27, -1.16, -1.2, -1.26, -1.26, -1.26, -7.61, -7.61, -7.61, -7.61, -7.61, -7.35, -7.15, -7.15, -7.15, -7.15, -6.87, -6.87, -6.87, -6.32, -6.32, -6.32, -6.01, -6.01, -6.01, -6.01, -5.72, -5.72, -5.36, -5.36, -5.36, -5.1, -5.1, -4.71, -4.71, -4.71, -4.71, -4.45, -4.03, -4.03, -4.03, -3.81, -3.81, -3.37, -3.37, -3.37, -3.37, -3.6, -3.6, -3.4, -3.4, -3.4, -3.4, -3.4, -3.64, -3.42, -3.42, -3.68, -3.68, -3.85, -3.85, -4.12, -4.12, -4.12, -4.12, -4.12, -4.12, -4.12, -4.11, -3.79, -4.07, -4.0, -3.39, -2.24, -1.9, -2.23, -2.86, -2.48, -1.84, -1.27, -1.61, -1.88, -1.61, -0.95, -1.2, -1.34, -1.79, -1.34, -0.63, 0.0, 0.0, 0.0, 0.0, 0.0, 0.0, 0.0, 0.0, -0.63, -0.57, -0.54, -0.99, -1.2, -1.2, -1.2, -7.61, -7.61, -7.61, -7.61, -7.61, -7.35, -7.15, -7.15, -7.15, -7.15, -6.87, -6.87, -6.87, -6.32, -6.32, -6.32, -6.01, -6.01, -6.01, -6.01, -5.72, -5.72, -5.36, -5.36, -5.36, -5.1, -5.1, -4.71, -4.71, -4.71, -4.71, -4.45, -4.03, -4.03, -4.03, -3.81, -3.81, -3.37, -3.37, -3.37, -3.37, -3.6, -3.6, -3.4, -3.4, -3.4, -3.4, -3.4, -3.64, -3.42, -3.42, -3.68, -3.68, -3.85, -3.85, -4.12, -4.12, -4.12, -4.12, -4.12, -4.12, -4.12, -4.11, -3.79, -4.07, -4.0, -3.39, -2.24, -1.9, -2.23, -2.86, -2.48, -1.84, -1.27, -1.61, -1.88, -1.24, -0.95, -1.2, -1.34, -1.79, -1.79, -1.34, -1.2, -0.6, 0.0, 0.0, 0.0, 0.0, 0.0, 0.59, 0.59, 0.61, 0.0, -0.63, -0.8, -0.8, -0.8]}]